GFSMW_con_mlcape_057.txt.gz
CAPE
0 0 0 2 2 1 1 1 1 2 3 2 3 1 0 0 6 3 16 13 22 21 19 19 8 3 3 3 2 0 0 0 0 0 0 0 0 0 0 0 0 0 0
0 0 0 1 2 2 1 2 2 1 2 3 6 4 0 0 9 32 34 37 41 31 42 35 22 25 9 4 3 0 0 0 0 0 0 0 0 0 0 0 0 0 0
0 0 0 1 3 2 3 1 2 2 2 4 4 2 1 0 2 7 23 34 55 81 69 62 71 76 37 36 20 0 0 0 0 0 0 0 0 0 0 0 0 0 0
0 0 0 0 2 1 4 6 1 1 2 1 1 0 0 0 0 2 6 3 41 63 106 100 61 70 42 40 19 1 0 0 0 0 0 0 0 0 0 0 0 0 0
0 0 0 0 0 2 1 4 2 1 0 1 0 0 0 0 4 0 5 5 16 18 20 22 23 15 46 64 35 5 0 0 0 0 0 0 0 0 0 0 0 0 0
0 0 0 0 0 0 2 3 2 0 0 0 0 0 0 0 0 0 2 1 0 0 5 1 6 5 32 37 37 49 13 0 0 0 0 0 0 0 0 0 0 0 0
0 0 0 0 0 0 0 2 1 1 0 0 0 0 0 0 0 0 0 0 0 0 0 0 0 0 0 0 0 0 3 5 4 0 0 0 0 0 0 0 0 0 0
0 0 0 0 0 0 0 0 0 0 0 0 0 0 0 0 0 0 0 0 0 0 0 0 0 0 0 0 0 0 0 0 0 0 0 0 0 2 0 0 0 0 0
0 0 0 0 0 0 0 0 0 0 0 0 0 0 0 0 0 0 0 0 0 0 0 0 0 0 0 0 0 0 0 0 0 0 0 0 0 0 0 0 0 0 0
0 0 0 0 0 0 0 0 0 0 0 0 0 0 0 0 0 0 0 0 0 0 0 0 0 0 0 0 0 0 0 0 0 0 0 0 0 0 0 0 0 0 0
0 0 0 0 0 0 0 0 0 0 0 0 0 0 0 0 0 0 0 0 0 0 0 0 0 0 0 0 0 0 1 0 0 2 1 3 2 0 0 0 0 0 0
0 0 0 0 0 0 0 0 0 0 0 0 0 0 0 0 0 0 0 0 0 0 0 0 0 0 0 0 0 0 0 0 0 2 2 2 1 0 0 0 0 0 0
0 0 0 0 0 0 0 0 0 0 0 0 0 0 0 0 0 0 0 0 0 0 0 0 0 0 0 0 0 0 0 0 1 2 2 1 2 0 0 0 0 0 0
0 0 0 0 0 0 0 0 0 0 0 0 0 0 0 0 0 0 0 0 0 0 0 0 0 0 0 0 0 0 0 1 1 2 2 1 0 0 0 0 0 0 0
0 0 0 0 0 0 0 0 0 0 0 0 0 0 0 0 0 0 0 0 0 0 0 0 0 0 0 1 1 0 0 2 1 2 1 1 0 0 0 0 0 0 0
0 0 0 0 0 0 0 0 0 0 0 0 0 0 0 0 0 0 0 0 0 0 0 0 0 1 2 0 0 0 1 2 2 2 4 1 1 0 0 0 0 0 0
0 0 0 0 0 0 0 0 5 0 1 0 0 0 0 0 0 0 0 0 0 0 0 2 5 4 4 0 0 0 1 1 2 2 2 2 0 0 0 0 0 0 0
0 0 0 0 0 0 0 0 0 0 7 8 9 0 0 0 0 0 0 0 0 1 1 1 1 0 0 0 0 0 1 1 2 2 1 0 0 0 0 0 0 0 0
0 0 0 0 0 0 0 0 0 0 1 8 14 14 18 8 0 0 0 1 0 0 0 0 0 0 0 0 0 2 0 1 1 1 1 1 1 0 0 0 0 1 0
0 0 0 0 0 0 0 0 0 0 0 0 0 7 18 19 5 0 0 0 0 0 1 2 2 1 1 2 2 0 1 3 2 3 3 1 2 2 0 0 0 0 0
0 0 0 0 0 0 0 0 0 0 0 0 0 0 0 0 0 0 1 1 1 3 3 3 5 3 2 0 0 0 2 2 3 3 3 1 0 1 0 0 0 0 0
0 0 0 0 0 0 0 0 0 0 0 0 0 0 0 1 1 0 2 2 4 3 5 3 3 1 1 1 1 1 0 0 0 0 0 3 2 1 0 0 0 0 0
0 0 0 0 0 0 1 0 0 0 1 1 1 3 4 4 3 2 3 2 3 3 4 3 1 1 3 4 3 1 0 0 0 0 0 1 0 0 0 0 0 0 0
2 0 1 0 0 5 6 4 2 1 1 1 3 3 2 3 3 4 4 3 2 2 2 2 2 3 1 1 0 0 0 0 0 0 0 0 0 0 0 0 0 0 0
1 2 3 8 2 1 0 1 1 0 1 2 3 5 4 3 3 4 2 2 1 1 2 3 1 0 1 1 0 0 0 0 0 0 0 0 0 0 0 0 0 0 0
4 5 5 5 6 4 4 1 1 2 1 2 6 4 4 5 6 5 7 5 2 1 1 0 0 2 1 1 1 1 1 0 0 0 0 0 0 1 0 0 0 0 0

GFSMW_con_mlcape_060.txt.gz
CAPE
0 0 0 0 3 2 5 1 2 2 2 1 0 1 0 0 0 24 37 71 67 87 75 66 66 55 47 45 31 6 0 0 0 0 0 0 0 0 0 0 0 0 0
0 0 0 0 0 5 10 1 1 2 2 2 0 0 4 1 1 11 30 67 94 90 88 72 62 52 89 87 67 25 16 2 0 0 0 0 0 0 0 0 0 0 0
32 0 0 0 0 1 1 11 10 2 2 0 3 12 21 2 6 3 6 37 103 153 79 81 101 95 92 131 137 98 78 68 5 0 46 64 21 44 0 0 0 0 0
41 0 0 0 0 0 4 10 19 10 4 4 3 4 0 0 0 0 5 38 71 114 108 80 131 154 154 132 170 185 158 148 122 0 0 7 10 35 11 0 0 0 0
43 3 0 0 0 0 1 5 10 6 2 4 3 2 0 0 0 0 1 50 46 84 92 101 156 192 160 145 157 135 128 148 122 95 63 0 0 0 0 0 0 0 0
13 22 0 0 0 0 0 2 2 7 3 3 3 2 2 0 0 0 0 3 12 32 40 51 83 156 87 31 8 34 169 179 144 123 87 27 0 0 0 0 0 2 0
7 20 2 0 0 0 0 0 2 2 5 3 3 2 4 1 0 0 0 0 1 6 6 25 79 50 3 0 1 12 72 109 113 126 82 53 3 0 0 0 0 0 0
5 28 19 0 0 0 0 0 0 2 6 7 4 3 5 2 0 0 0 0 0 0 0 0 8 13 4 9 44 43 41 69 79 112 111 90 61 20 0 0 0 0 0
2 31 50 25 3 0 0 0 0 0 3 2 3 2 3 6 2 0 0 0 0 0 0 0 0 18 31 31 46 45 15 44 61 67 87 118 114 15 1 0 0 1 2
0 35 82 57 32 0 0 0 0 0 0 1 5 5 4 5 7 5 0 0 0 0 0 0 0 0 6 14 24 31 18 23 26 63 57 76 62 54 4 1 0 1 3
17 78 95 87 65 34 0 0 0 0 0 0 0 0 0 2 8 5 4 1 0 0 0 0 0 0 0 0 9 4 0 4 4 74 90 50 27 4 0 1 1 0 0
0 38 129 123 51 56 23 4 0 0 0 0 0 0 0 0 0 0 0 1 0 0 0 0 0 0 0 0 0 0 1 3 11 47 74 15 12 4 0 1 1 0 0
0 32 64 126 148 84 53 21 5 0 0 0 0 0 0 0 0 0 0 0 1 1 2 3 0 0 0 0 0 0 0 2 14 17 8 0 1 0 0 1 2 1 0
0 0 36 26 100 131 97 40 20 7 0 0 0 0 0 0 0 0 0 0 0 1 1 0 0 0 0 0 0 0 0 5 0 0 0 0 1 0 1 0 1 0 0
0 0 0 0 13 56 121 92 52 27 6 0 0 0 0 0 0 0 0 0 0 0 0 0 0 0 0 0 0 2 3 1 0 1 0 0 0 0 1 1 2 3 1
0 0 0 0 0 11 69 111 85 61 28 0 0 0 0 0 0 0 0 0 0 0 0 0 0 0 1 0 0 0 2 4 0 0 0 2 1 0 0 1 0 0 1
0 0 0 0 0 0 0 52 137 102 64 43 20 2 0 0 0 0 0 0 0 0 0 0 0 0 3 4 0 0 2 0 1 1 1 1 1 0 0 0 0 0 0
0 0 0 0 0 0 0 0 20 126 131 107 83 38 18 15 12 10 4 3 5 3 5 4 4 4 4 2 0 0 0 1 0 1 1 2 2 1 0 2 1 1 0
0 0 0 0 0 0 0 0 0 4 76 134 138 117 69 41 18 4 0 0 5 36 41 41 46 22 2 0 0 0 1 1 2 1 0 1 2 4 2 0 0 0 1
0 0 0 0 0 0 0 0 0 0 22 66 111 118 112 85 79 72 50 22 25 27 0 0 0 0 0 1 0 0 1 1 3 2 3 2 2 2 0 0 0 0 2
0 0 0 0 0 0 0 0 0 0 0 24 59 76 85 99 107 80 0 1 0 1 1 2 6 5 4 5 1 2 4 6 7 4 4 2 2 1 1 1 1 0 0
0 0 0 1 4 2 4 2 0 1 0 0 0 0 1 0 1 0 3 3 3 2 5 4 6 6 2 1 1 1 2 2 1 3 4 5 4 4 3 1 0 0 0
0 0 0 3 4 4 4 2 5 3 5 3 3 4 4 4 5 4 9 5 6 7 10 7 8 3 4 5 5 4 2 2 3 2 2 1 1 1 0 0 0 0 0
0 0 0 0 0 2 2 3 2 2 5 4 4 5 5 5 6 5 6 5 3 3 4 3 3 5 5 5 5 4 3 2 2 1 0 0 0 0 0 0 0 0 0
0 1 5 5 7 4 4 2 2 0 2 5 6 7 7 6 5 5 4 3 2 3 3 5 2 2 1 2 2 2 2 1 0 0 0 0 0 0 0 0 0 0 0
1 2 3 5 6 6 4 4 3 1 1 4 5 6 6 6 6 5 5 3 5 1 1 1 0 2 1 2 3 3 2 1 0 1 1 1 1 1 1 1 0 0 0

GFSMW_con_mlcape_063.txt.gz
CAPE
92 10 0 0 0 3 13 5 2 2 0 3 1 1 5 5 8 5 41 61 49 71 60 91 127 118 38 23 35 10 0 0 0 0 0 0 0 0 0 0 0 0 0
90 0 0 0 0 0 4 2 3 2 1 0 1 4 2 2 1 1 33 66 61 130 98 112 134 158 115 103 76 68 38 2 0 0 0 0 0 0 0 0 0 0 0
98 29 0 0 0 0 2 2 3 2 1 0 0 10 3 3 0 4 10 25 63 105 143 171 152 117 182 153 158 160 113 56 5 0 31 39 13 21 0 0 0 0 0
33 107 3 0 0 0 1 14 13 4 1 3 1 1 0 0 0 0 4 12 12 88 104 92 100 159 136 127 163 181 148 131 89 44 12 80 129 86 16 0 0 0 0
5 65 65 6 0 0 0 0 10 11 5 4 3 0 0 4 14 1 5 7 0 51 75 75 49 107 180 140 201 197 178 185 83 130 131 60 66 107 58 54 0 0 0
0 32 82 51 0 0 0 0 2 9 10 3 2 1 0 3 8 9 5 4 5 23 36 46 56 39 132 153 162 160 227 191 170 102 110 93 57 32 21 6 35 6 0
0 8 74 68 1 0 0 0 1 1 5 5 4 2 1 1 1 1 0 0 0 6 15 51 69 59 52 85 50 162 162 175 128 197 111 68 87 72 24 16 0 5 0
0 17 60 83 23 0 0 0 0 0 2 4 3 6 3 8 2 1 0 0 0 0 12 59 49 61 29 36 55 51 51 45 50 106 134 86 40 93 82 15 1 18 0
0 15 53 112 55 6 0 0 0 0 0 3 3 3 3 2 2 1 0 0 0 4 27 31 49 56 67 75 54 23 5 41 36 36 51 69 79 38 75 86 52 30 6
0 6 63 135 107 37 0 0 0 0 0 0 3 5 4 6 4 0 2 0 0 10 8 21 11 14 17 24 47 21 13 29 53 51 38 45 85 109 109 97 48 8 0
0 11 86 156 199 127 38 2 0 0 0 0 0 5 2 8 12 7 8 1 3 1 0 0 0 0 0 0 11 29 20 23 28 42 49 22 53 87 117 109 65 14 1
0 57 136 211 250 227 143 46 7 0 0 4 4 4 3 5 3 2 5 8 2 0 4 2 0 0 0 1 1 0 3 9 0 3 14 7 24 35 88 101 15 1 0
0 32 180 244 308 308 283 167 79 19 0 0 10 30 62 81 68 71 3 7 11 4 5 16 6 3 1 1 0 0 1 14 12 8 16 19 30 43 9 0 0 0 0
0 3 65 150 301 305 303 298 215 116 38 2 6 23 49 35 41 31 21 10 9 2 3 3 12 13 11 17 19 21 16 12 12 14 22 38 59 22 4 0 0 0 0
0 2 7 24 67 158 279 280 250 228 149 62 19 30 51 51 30 38 26 8 0 0 5 14 10 4 2 5 4 4 5 11 14 13 28 24 11 4 4 5 0 0 2
0 0 0 0 0 0 55 183 255 247 207 165 106 53 40 34 39 43 38 21 9 2 2 0 0 0 0 0 0 0 21 2 2 7 5 3 0 0 0 0 0 0 1
0 0 0 0 0 0 0 1 98 234 234 216 182 135 92 70 63 58 27 29 25 12 5 3 1 0 0 0 0 0 0 4 12 12 6 2 0 0 0 0 0 0 0
0 0 0 0 0 0 0 0 0 30 218 235 225 176 156 116 101 71 51 52 48 36 30 26 13 14 29 4 0 0 0 5 8 9 19 18 0 0 0 1 2 3 2
0 0 0 0 0 0 0 0 0 0 21 195 271 238 187 146 112 108 116 104 82 70 77 84 66 57 94 9 0 0 0 0 0 0 0 0 1 3 2 2 4 2 2
0 0 0 0 0 0 0 0 0 0 0 3 86 261 264 215 151 155 169 159 127 114 92 11 0 0 0 0 0 0 0 0 2 5 6 4 4 4 5 2 2 0 3
0 0 0 0 0 2 1 0 0 0 0 29 47 81 192 246 244 207 161 122 38 0 0 1 10 8 7 7 2 3 1 4 8 6 4 2 2 3 2 1 0 0 2
0 0 0 0 2 1 2 7 8 5 3 0 0 0 0 0 0 0 0 0 0 2 6 5 8 9 4 2 1 0 1 2 2 5 4 4 5 5 3 2 2 1 1
0 0 0 1 2 0 3 2 5 3 4 5 6 7 6 6 6 7 10 8 6 9 10 7 3 4 6 5 6 5 4 4 4 2 3 5 5 3 2 0 0 0 0
0 0 0 1 5 3 5 2 2 2 3 6 6 6 5 5 6 5 5 4 4 4 4 5 6 6 6 6 3 3 3 3 3 1 1 1 1 1 0 0 0 0 0
0 0 0 2 6 4 5 4 0 1 3 4 4 6 7 7 6 6 6 5 2 2 3 4 3 3 3 4 2 2 2 1 0 1 1 1 1 1 0 0 0 0 1
0 1 0 1 4 4 5 4 3 1 2 2 3 3 3 4 4 4 4 2 3 3 2 1 1 0 1 1 2 1 0 0 0 0 1 0 0 0 0 0 0 0 0

GFSMW_con_mlcape_066.txt.gz
CAPE
51 85 0 0 0 9 1 3 2 1 0 0 2 1 1 1 2 0 0 0 8 28 34 39 40 44 51 25 31 35 3 6 0 9 3 0 0 0 0 0 0 0 0
64 92 0 0 0 12 3 4 4 0 0 0 0 3 1 1 0 1 0 0 7 12 7 22 52 55 48 18 14 5 0 0 0 0 0 0 0 0 0 0 0 0 0
40 78 0 0 0 23 0 2 3 0 0 1 1 7 2 2 1 0 3 0 3 5 10 55 41 52 92 36 27 33 1 2 0 0 0 0 0 0 0 0 0 0 0
22 98 6 0 0 2 0 0 1 1 0 0 2 0 2 1 0 1 0 0 1 16 14 37 44 44 119 91 67 52 89 69 13 0 0 7 68 28 0 0 0 0 0
0 105 49 0 0 1 2 0 0 1 1 2 2 0 1 1 0 1 0 0 0 15 27 66 59 137 30 116 100 92 107 152 80 17 7 12 26 55 38 0 0 0 0
0 4 131 5 0 3 4 0 0 1 3 2 1 0 0 0 0 0 0 0 0 1 20 45 55 72 53 72 67 40 36 82 77 75 119 93 42 51 32 34 24 0 0
0 0 100 71 0 3 14 0 0 3 2 4 1 1 0 0 0 0 0 0 0 0 0 17 40 24 21 68 67 42 26 46 52 57 41 70 71 53 68 48 30 27 0
0 0 36 126 7 0 10 4 0 1 4 2 3 0 0 0 0 0 0 0 0 0 0 0 7 19 27 17 53 39 17 3 5 31 42 33 47 56 55 33 24 32 20
0 0 6 168 51 0 0 0 0 0 2 4 2 4 0 0 0 0 0 0 0 0 0 0 2 4 25 32 10 9 0 0 5 22 21 29 45 58 46 47 41 19 12
1 0 0 198 164 0 0 9 0 0 0 2 3 3 6 5 1 0 0 0 0 0 0 0 8 5 12 28 23 17 1 1 5 17 6 37 39 40 35 20 24 21 21
0 13 24 207 282 97 7 10 0 0 0 0 1 3 5 4 6 1 0 0 0 0 0 0 6 16 33 33 11 3 0 1 1 3 19 29 28 32 25 36 39 28 20
0 6 63 170 345 255 76 17 0 0 0 0 0 0 3 5 8 4 4 2 0 0 0 0 3 0 0 8 10 9 12 11 2 0 9 9 17 17 17 30 28 31 28
0 27 183 188 338 351 305 136 40 4 0 15 5 1 0 1 4 16 4 2 3 0 0 0 3 0 0 0 0 0 0 0 0 0 0 0 0 3 13 15 26 35 41
0 0 22 193 328 402 407 395 241 95 23 0 31 27 11 2 0 6 48 11 32 12 0 0 0 1 0 0 0 0 0 0 0 0 0 1 0 0 8 18 40 57 24
4 0 0 0 2 119 381 409 482 374 171 77 13 30 81 80 53 31 32 41 36 40 31 1 0 1 1 0 0 0 0 0 0 0 0 0 0 2 8 35 50 24 2
0 1 0 0 0 0 0 0 202 380 417 236 159 73 38 109 98 102 143 137 110 49 45 33 24 2 0 0 0 0 0 2 5 2 2 4 2 0 0 1 34 30 1
0 0 0 3 1 0 0 0 0 0 359 408 380 249 140 76 120 128 114 104 89 68 57 51 53 38 43 24 0 0 0 20 44 32 25 20 13 7 2 0 0 0 0
0 0 0 0 0 0 0 0 0 0 1 86 417 386 316 200 137 101 93 109 103 99 91 72 48 51 55 23 11 0 0 2 4 5 8 24 22 27 3 0 3 11 5
0 0 0 0 0 0 0 0 0 0 5 2 6 264 334 271 250 150 115 111 83 88 84 81 58 37 12 0 0 0 10 10 0 0 0 0 0 0 0 2 6 6 4
0 0 0 0 1 1 0 0 0 0 0 0 1 0 0 320 267 236 196 144 94 64 66 0 0 0 0 1 0 0 0 0 0 12 8 4 3 4 1 2 1 3 3
0 0 0 0 1 1 1 1 3 5 6 4 2 2 0 0 0 77 26 109 0 0 0 0 5 5 6 5 3 2 1 6 13 8 9 3 2 3 3 1 1 3 1
0 0 0 0 0 0 3 5 6 4 4 2 5 5 5 5 4 0 0 0 0 0 2 3 14 12 4 3 2 1 2 2 7 7 4 3 6 5 4 3 3 1 1
0 0 0 0 0 1 4 5 4 3 2 0 4 5 4 5 8 8 10 8 9 8 9 10 13 7 4 2 1 3 3 2 0 3 2 4 5 3 3 1 0 0 0
0 0 0 2 3 2 3 4 4 1 1 0 1 4 5 4 4 5 3 6 6 5 6 7 6 2 2 2 2 2 2 1 0 0 1 1 1 0 0 0 0 0 0
0 0 1 3 3 2 3 2 2 2 4 2 0 0 0 0 1 1 3 4 3 2 3 2 3 2 1 1 1 0 1 1 1 0 0 0 0 0 0 0 0 0 0
0 1 1 1 1 1 2 1 1 1 2 4 3 3 1 1 1 1 0 2 2 0 1 1 0 0 1 1 0 0 0 0 1 0 0 0 0 0 0 0 0 0 0

GFSMW_con_mlcape_072.txt.gz
CAPE
37 20 37 12 0 0 0 0 0 0 0 1 1 4 1 1 1 0 3 0 9 0 0 0 0 0 0 0 0 0 0 0 0 0 0 0 0 0 0 0 0 0 0
23 18 46 18 12 0 0 0 0 0 0 0 1 1 1 1 1 1 1 0 0 0 0 0 2 8 0 0 0 0 0 0 0 0 0 0 0 0 0 0 0 0 0
15 9 49 33 15 0 0 0 0 0 0 0 0 0 1 1 1 1 1 1 0 3 13 0 16 40 30 5 3 0 0 1 0 0 0 0 0 2 0 2 0 0 0
3 5 39 21 1 0 0 0 0 0 0 1 0 0 1 1 0 1 0 0 0 0 1 21 7 22 55 35 18 0 0 3 0 0 0 0 0 0 0 0 0 0 0
0 1 33 33 0 0 0 0 0 0 0 1 0 0 1 0 1 1 0 0 0 0 0 8 16 10 37 30 12 20 1 0 0 0 0 0 0 0 0 0 0 0 0
0 6 11 14 2 0 0 0 0 0 0 0 0 0 0 0 2 0 1 1 0 0 1 4 9 0 7 20 7 0 3 1 5 0 0 0 0 0 13 4 0 0 0
0 0 0 9 12 0 0 0 0 0 0 0 1 0 0 0 0 0 0 1 0 0 0 0 0 0 3 3 1 2 5 11 15 13 0 0 0 0 0 8 12 5 0
0 0 0 5 9 0 0 0 0 0 0 0 0 0 0 0 0 0 0 0 0 0 0 0 0 0 0 1 26 12 8 36 33 17 15 21 27 28 35 24 33 17 7
0 0 2 5 0 0 0 0 0 0 0 0 0 0 0 0 0 0 0 0 0 0 0 0 2 0 6 11 10 38 61 35 35 31 55 62 33 26 38 29 14 21 4
1 0 0 4 0 0 0 0 0 0 0 0 1 0 0 0 0 0 0 0 0 0 0 0 0 0 0 8 24 16 20 28 31 34 32 16 3 2 1 10 15 5 13
0 9 11 0 0 0 0 0 0 0 0 1 0 0 0 0 1 0 0 0 0 0 0 0 0 0 0 0 1 7 5 5 11 18 17 1 1 0 1 0 5 0 1
0 1 0 0 0 0 0 0 0 0 0 0 0 0 0 0 0 1 0 0 0 0 0 0 0 0 0 0 0 1 2 3 1 0 0 2 0 0 0 0 0 0 2
0 0 0 0 0 0 0 0 0 0 0 0 0 0 0 0 0 0 1 1 0 0 0 0 0 0 0 0 0 0 0 0 0 0 0 0 0 0 0 0 0 0 0
0 0 0 0 0 0 0 0 0 0 0 0 0 0 0 0 0 0 0 0 1 2 0 0 0 0 0 0 0 0 0 0 0 0 0 0 0 0 0 0 0 0 0
0 0 0 0 0 0 0 0 0 0 0 0 0 0 0 0 0 0 0 0 0 1 0 0 0 0 0 0 0 0 0 0 0 0 0 0 0 0 0 0 0 0 0
0 0 0 0 0 0 0 0 0 0 0 0 0 0 0 0 0 0 0 0 0 0 0 0 1 0 0 0 0 0 0 0 0 0 0 0 0 0 0 0 0 0 0
0 0 0 0 0 0 0 0 0 0 0 0 0 0 0 0 0 0 0 0 0 0 0 0 0 0 0 0 0 0 0 0 2 3 2 1 0 0 0 0 0 0 0
0 0 0 0 0 0 0 0 0 0 0 1 0 0 0 0 0 0 0 1 0 0 0 1 1 1 1 0 0 0 0 0 0 0 2 0 0 0 0 0 0 0 0
0 0 0 0 0 0 0 0 0 0 0 3 3 2 0 2 2 3 3 4 1 0 0 0 2 1 2 0 0 0 0 0 0 0 0 0 0 0 0 0 0 1 16
0 0 0 0 0 0 0 0 0 0 0 2 3 2 3 5 4 9 7 7 8 2 1 6 18 22 13 8 9 1 1 1 0 4 11 12 5 4 0 0 3 10 18
0 0 0 0 1 1 1 1 1 0 2 0 1 2 2 3 5 5 6 9 5 6 16 18 10 9 5 7 8 3 2 2 8 9 8 4 2 3 3 3 5 5 1
0 0 0 2 3 3 4 4 2 1 0 1 2 4 3 3 3 4 4 4 3 3 4 4 4 4 2 2 4 5 4 4 5 8 2 0 2 3 4 4 2 1 1
0 0 1 2 2 2 3 4 3 1 1 2 4 3 3 3 2 4 4 5 4 0 0 0 0 1 1 0 1 3 3 1 2 1 1 2 1 2 2 2 1 1 1
1 1 2 4 4 2 1 1 0 0 0 1 2 3 3 3 1 0 1 2 2 3 3 4 3 3 3 2 1 0 0 1 0 1 1 2 1 0 0 0 0 0 0
1 1 3 3 3 2 1 1 0 1 2 2 2 2 2 2 1 1 1 0 0 1 2 1 0 0 0 1 0 0 0 0 0 1 0 0 1 1 0 0 0 0 0
2 1 2 2 3 3 2 1 0 0 2 3 2 1 1 1 1 1 1 1 1 1 2 1 0 0 1 2 2 2 1 0 1 0 0 0 0 0 0 0 0 0 0

GFSMW_con_mlcape_075.txt.gz
CAPE
0 2 38 47 41 0 11 0 0 0 0 0 1 0 1 1 7 4 4 1 1 0 3 0 0 0 0 0 0 0 0 0 0 0 0 0 0 0 0 0 0 0 0
0 0 31 50 29 9 0 0 0 0 0 0 0 0 1 2 0 3 10 28 18 1 0 0 0 0 0 0 0 0 0 0 0 0 0 0 0 0 0 0 0 0 0
0 0 38 57 34 1 0 0 0 0 0 0 0 0 0 2 1 8 15 2 4 0 0 0 0 0 0 0 0 0 0 0 0 0 0 0 0 3 0 0 0 0 0
0 1 38 54 52 5 0 0 0 0 0 0 0 0 0 0 1 2 1 3 9 1 0 0 3 2 0 0 2 3 3 1 3 0 0 0 0 18 5 0 0 5 10
0 0 60 77 49 0 0 0 0 0 0 0 0 0 0 0 0 2 0 1 1 0 0 0 0 5 1 9 26 17 6 14 14 0 0 1 0 0 0 11 1 0 2
0 0 46 45 56 19 0 0 0 0 0 0 0 0 0 0 0 0 1 1 0 1 0 0 0 2 7 15 20 34 36 8 0 4 8 5 1 3 0 0 0 0 1
0 0 6 38 61 43 3 0 0 0 0 0 0 0 0 0 0 0 3 0 1 0 0 0 0 0 0 17 13 30 33 10 1 0 0 2 4 7 14 0 0 6 5
0 0 0 27 62 56 12 0 0 0 0 0 0 0 0 0 0 0 0 0 0 0 0 0 0 0 0 3 12 23 31 7 5 1 0 0 9 12 14 3 6 0 0
0 0 0 18 39 43 11 0 0 0 0 0 0 0 0 0 0 0 0 0 0 0 0 0 0 0 0 0 0 1 0 0 0 8 0 0 1 23 19 20 23 6 1
0 0 0 11 33 7 0 0 0 0 1 0 1 0 0 0 0 0 0 0 0 1 0 0 0 0 0 0 0 0 1 2 3 4 2 19 19 30 51 67 61 37 28
0 0 0 0 4 0 1 0 0 1 0 0 1 1 0 0 0 0 0 0 0 0 0 0 0 0 0 0 0 0 0 1 6 8 12 19 31 46 54 45 34 6 2
0 0 0 0 0 0 1 1 2 1 0 1 0 1 0 0 0 0 0 0 0 0 0 0 0 0 0 0 0 0 1 3 3 12 17 20 27 31 38 19 12 6 1
0 0 0 0 0 0 0 0 0 0 0 1 1 2 0 0 0 0 0 0 0 0 0 0 0 0 0 0 0 0 0 0 3 5 10 3 6 4 2 0 2 1 0
2 1 1 3 3 2 2 1 0 0 0 0 0 0 1 0 0 0 0 0 0 0 0 0 0 0 0 0 0 0 0 0 1 0 0 1 2 4 1 1 0 0 0
0 0 1 1 1 2 1 0 0 0 0 0 0 0 0 0 0 0 0 0 0 0 0 1 0 0 0 0 0 0 0 0 0 0 0 0 0 0 0 0 0 0 0
0 0 0 0 0 0 0 0 0 0 0 0 0 0 0 0 0 0 0 0 0 0 0 0 0 0 0 0 0 0 0 0 0 0 0 0 0 0 0 0 0 0 0
0 0 0 0 0 0 0 0 0 0 0 0 0 0 0 0 0 0 0 0 1 0 1 0 0 0 0 0 0 0 0 0 0 0 0 0 0 0 0 0 0 0 0
0 0 0 0 0 0 0 0 0 0 0 0 0 1 1 2 1 1 3 1 2 2 2 1 1 1 1 0 0 0 0 0 0 0 0 0 0 0 0 0 0 0 0
1 1 0 1 0 1 0 0 0 0 0 0 0 1 1 3 5 5 8 9 8 5 4 7 7 4 4 12 9 4 0 2 1 0 0 0 0 0 0 0 0 0 6
0 0 0 0 1 1 2 0 0 0 0 0 2 2 1 4 7 8 6 6 7 9 8 6 6 4 6 1 0 0 3 3 0 8 8 5 9 8 6 2 1 2 16
0 0 0 4 4 2 1 5 1 1 2 3 3 3 2 2 3 4 5 4 3 2 1 0 2 3 3 4 3 0 1 7 6 6 4 2 3 7 5 2 4 3 1
0 0 0 2 1 2 1 7 6 3 2 3 4 4 3 2 2 2 2 3 2 4 4 5 5 3 1 3 5 6 6 1 0 1 2 3 4 4 3 2 2 1 0
0 1 3 3 2 2 2 4 2 0 2 2 4 3 1 1 0 4 3 2 2 3 3 2 3 3 2 1 1 3 3 2 2 2 2 3 4 4 2 4 2 0 1
2 1 1 2 2 2 1 1 1 0 0 1 4 3 3 3 1 0 0 1 2 3 3 3 3 2 2 1 2 2 1 0 1 1 0 1 0 1 1 0 0 0 0
2 1 2 2 3 1 0 0 0 0 3 3 3 4 2 1 1 1 0 1 0 0 1 0 0 2 3 1 0 0 0 0 0 0 0 0 0 0 0 0 0 0 0
2 2 1 0 2 1 0 0 0 0 2 1 0 1 0 1 1 2 1 0 0 0 0 0 1 0 0 0 1 2 3 1 0 0 0 0 0 0 0 0 0 0 0

GFSMW_con_mlcape_078.txt.gz
CAPE
0 0 63 170 115 147 64 25 0 0 0 0 0 3 0 2 4 9 11 1 3 19 5 1 0 0 0 0 0 0 0 0 0 0 0 0 0 0 0 0 0 0 0
0 0 15 133 146 143 31 18 0 0 0 2 0 0 1 0 5 2 2 2 1 1 2 0 0 0 0 0 0 0 0 0 0 0 0 1 0 0 0 0 0 0 0
0 0 0 67 94 71 32 12 0 0 0 0 0 0 0 1 1 2 5 1 1 0 0 0 0 0 0 0 0 0 0 0 0 0 0 0 0 0 0 0 0 0 0
0 0 0 28 80 29 25 0 0 0 1 0 0 0 0 0 0 2 1 2 1 0 0 0 0 0 0 0 0 0 0 0 0 0 0 0 0 11 0 0 0 0 0
0 0 0 11 55 3 17 0 0 0 0 0 0 0 0 0 0 1 3 1 3 0 0 0 0 0 0 0 3 1 0 0 4 4 1 2 1 10 3 0 3 4 1
0 0 5 43 41 6 4 0 0 0 1 3 0 0 0 0 0 0 3 0 1 2 0 0 0 0 0 0 7 5 13 13 3 19 43 39 18 15 23 1 10 15 0
0 0 0 21 10 16 16 1 0 0 0 1 0 0 0 0 0 0 0 1 1 0 2 2 3 0 0 0 0 22 22 29 45 42 39 24 22 23 23 15 3 1 0
0 0 0 0 8 10 14 1 0 0 0 0 1 0 0 0 0 0 0 2 2 1 0 2 2 2 0 0 1 0 20 24 6 2 7 3 6 1 2 22 23 22 3
0 0 0 1 9 19 16 2 1 0 0 1 2 1 0 0 0 0 0 1 2 0 0 0 0 0 0 0 0 16 12 4 11 8 8 20 10 0 0 1 8 30 11
0 0 0 2 13 17 3 3 2 0 0 1 1 1 1 0 0 0 0 0 0 0 0 0 0 0 0 0 1 0 1 16 5 11 12 6 2 3 1 0 5 1 6
0 0 0 2 13 3 1 1 2 1 0 1 0 0 0 1 0 0 0 0 0 0 0 0 0 0 0 1 2 1 0 0 2 0 0 3 1 1 2 0 0 4 9
1 0 0 0 1 1 0 1 2 0 0 1 0 1 0 1 0 0 0 0 0 0 0 0 0 0 0 0 0 0 0 0 0 0 0 1 0 0 0 2 7 4 15
2 3 2 1 1 4 2 0 1 2 1 2 1 1 0 1 0 0 0 0 0 0 0 0 0 0 0 0 0 0 0 0 0 0 1 1 3 3 4 5 6 11 12
4 3 3 4 2 1 1 0 0 1 1 2 1 1 2 1 0 0 0 0 0 0 0 0 0 0 0 0 0 0 0 0 0 0 0 2 1 0 5 16 8 4 6
5 4 4 5 4 4 3 2 2 0 0 1 1 0 0 0 0 0 0 0 0 0 0 0 0 0 0 0 0 0 0 0 0 0 0 0 0 1 1 2 1 1 1
3 6 5 4 3 3 2 0 0 1 0 0 0 1 0 0 0 0 0 1 0 0 0 0 0 0 0 0 0 0 0 0 0 0 0 0 0 0 0 0 0 0 1
0 3 4 4 4 2 0 1 2 0 0 0 0 1 0 1 1 1 0 0 1 0 1 0 0 0 0 1 0 0 0 0 0 0 0 0 0 0 0 0 0 0 0
0 2 2 1 2 1 0 0 0 0 0 0 1 1 1 1 1 3 2 2 7 3 2 3 4 2 7 1 1 1 0 1 0 0 0 0 0 1 2 0 1 0 0
3 5 2 3 2 1 0 0 0 0 1 2 2 2 1 3 6 5 5 6 5 8 9 8 7 7 5 4 0 0 0 2 3 9 7 2 2 3 0 2 2 4 11
2 3 4 4 3 1 0 0 1 2 3 6 3 2 2 4 6 6 5 4 5 6 5 7 5 5 4 6 2 0 2 2 7 3 2 2 6 6 0 0 0 1 4
1 2 3 4 3 1 2 5 6 7 3 2 2 3 1 2 2 3 2 3 4 2 3 3 3 3 3 5 6 2 5 6 7 8 7 3 3 4 5 3 4 3 1
2 3 4 3 2 1 1 4 6 2 0 1 1 2 2 2 1 2 1 1 2 2 2 2 3 2 2 2 2 4 3 2 2 4 2 2 2 3 3 2 2 2 1
2 1 2 1 2 1 1 4 3 2 2 1 2 1 1 1 1 3 3 4 1 2 4 3 4 4 2 2 1 1 3 2 3 2 3 3 3 1 3 1 0 0 0
2 1 1 1 2 1 1 1 0 0 2 4 1 0 1 1 0 0 0 0 1 2 2 3 5 3 3 2 0 0 0 0 0 0 0 0 0 0 0 0 0 0 0
2 1 2 2 1 0 0 0 0 1 3 3 3 2 1 1 1 1 0 0 0 0 1 0 0 2 3 0 0 1 0 0 0 0 0 0 0 0 0 0 0 0 0
0 1 1 1 1 0 0 0 0 1 1 0 0 0 0 0 0 1 1 1 0 3 2 0 0 0 1 0 0 0 1 0 0 0 0 0 0 0 0 0 0 0 0

GFSMW_con_mlcape_084.txt.gz
CAPE
0 0 0 0 399 818 1278 1342 1093 1078 557 236 138 89 43 14 3 4 4 4 3 2 17 68 55 12 2 1 6 66 62 46 49 35 22 20 4 19 6 9 18 17 15
0 0 0 0 412 765 1164 1229 963 802 447 221 91 45 5 3 12 10 40 48 25 45 18 36 23 5 2 1 0 50 39 49 27 24 13 10 12 8 10 9 11 18 19
0 0 0 0 375 615 1061 938 781 780 294 194 75 59 23 7 3 16 63 56 33 8 10 23 2 2 2 1 0 9 28 42 41 48 10 10 7 10 20 8 9 9 11
0 0 0 0 221 524 932 677 722 669 193 102 66 9 0 3 15 7 5 7 3 4 2 6 2 1 2 2 1 3 30 22 22 32 32 13 8 18 22 13 3 4 7
0 0 0 0 139 460 902 599 492 469 132 79 76 2 7 9 29 5 3 2 1 1 1 1 1 1 2 2 0 4 31 7 6 7 34 39 50 24 26 19 17 10 8
3 0 0 0 80 417 844 429 198 141 75 104 77 6 15 9 11 3 2 2 2 3 2 0 2 2 2 2 2 4 36 4 30 20 40 8 24 34 43 31 52 37 62
204 141 26 50 199 584 595 47 70 68 44 164 25 7 10 10 4 2 1 1 1 1 2 2 1 2 2 1 0 0 1 0 15 9 32 0 17 36 68 57 35 31 71
197 275 64 215 296 577 68 10 34 34 17 79 4 1 3 12 6 7 6 2 2 0 0 0 2 2 2 2 0 0 0 5 19 22 50 54 63 59 58 24 15 18 41
1 352 81 343 333 448 7 11 30 19 3 3 1 1 5 5 1 0 7 14 26 16 2 0 0 0 0 0 0 0 0 0 30 58 69 53 59 54 54 33 5 3 3
2 53 146 320 429 260 14 74 264 13 3 0 1 2 4 4 3 3 10 12 12 7 4 3 2 0 0 0 0 0 0 0 0 5 7 19 21 40 49 55 34 31 20
5 3 222 245 257 70 119 97 58 1 1 3 2 0 1 3 4 4 2 9 11 4 7 0 2 2 1 0 0 0 0 0 0 0 0 0 0 5 13 22 9 6 1
3 5 2 71 53 8 4 8 8 2 5 3 1 2 8 5 5 2 2 17 18 18 18 4 1 2 2 1 0 0 0 0 0 0 0 0 0 0 4 12 5 7 18
0 5 7 1 1 4 4 5 3 5 4 3 3 4 7 3 2 1 20 11 6 12 14 12 13 6 2 3 1 0 0 0 0 0 0 0 0 0 0 0 2 9 2
2 5 7 4 4 1 2 0 2 2 4 4 5 4 2 2 1 0 16 0 0 0 14 6 2 1 12 9 2 2 1 0 0 0 0 0 1 0 1 5 4 5 4
1 3 7 6 5 4 3 3 4 1 1 1 0 0 0 0 1 3 11 21 20 15 14 14 5 3 5 0 0 12 4 5 3 5 21 19 13 22 23 19 3 9 12
2 3 3 4 3 6 6 4 4 4 1 1 3 2 3 1 1 2 2 1 1 0 0 0 0 2 0 6 2 0 0 12 11 4 7 14 7 4 0 0 0 0 10
1 5 5 5 4 3 3 5 5 3 2 1 3 3 3 4 4 3 2 5 7 6 6 7 6 8 4 1 0 0 0 2 0 1 1 0 2 0 0 2 4 10 13
1 1 3 2 3 1 2 2 2 3 3 4 4 4 4 6 4 4 7 6 7 10 10 9 6 4 5 1 0 1 4 4 7 9 7 4 4 2 0 3 1 7 11
2 4 2 1 1 1 1 1 1 2 2 4 5 5 2 4 5 8 7 4 4 6 7 5 6 7 7 2 2 3 7 7 6 4 5 1 0 1 0 2 6 12 7
2 2 3 2 0 0 0 0 3 3 5 1 1 0 1 2 5 4 4 2 1 4 2 5 2 2 5 3 2 3 1 4 5 4 3 2 5 3 1 0 1 1 2
1 0 0 1 2 0 0 2 3 5 1 1 0 0 0 0 0 0 1 0 0 1 1 3 1 1 1 2 1 0 1 2 4 4 4 2 1 2 3 3 4 4 3
0 0 1 1 0 0 0 3 4 0 0 0 0 0 1 0 0 0 0 0 0 1 1 1 1 2 2 1 1 1 0 0 2 4 1 1 0 0 0 0 0 0 0
2 0 0 0 0 0 0 2 1 1 0 0 0 0 0 0 0 0 1 0 0 0 1 1 1 1 2 1 0 1 1 0 2 1 0 0 0 0 0 0 0 0 1
0 0 0 1 1 0 0 0 0 0 0 0 0 0 0 0 0 0 0 0 0 1 1 2 2 2 1 2 1 0 2 0 0 0 0 0 0 0 0 0 0 0 0
0 0 0 0 1 0 0 0 0 0 0 0 0 0 0 0 0 0 0 0 0 0 2 2 1 1 1 1 1 0 1 2 0 1 1 1 0 0 0 0 0 0 0
0 0 0 0 0 0 1 1 0 1 0 0 0 0 0 0 0 0 0 1 1 2 1 0 1 1 1 0 0 0 0 0 0 0 0 0 0 0 0 0 0 0 0

GFSMW_con_mlcape_087.txt.gz
CAPE
0 0 0 0 0 6 656 1337 1995 1653 1819 1461 821 607 399 407 270 185 154 217 224 95 3 9 25 39 67 81 94 55 21 40 57 79 34 33 21 26 14 14 2 15 1
0 0 0 0 0 207 950 1449 1852 1673 1683 1005 933 650 442 290 341 298 134 60 8 2 4 15 53 29 27 43 65 42 26 41 76 31 19 30 10 24 10 11 0 21 13
0 0 0 0 0 242 905 1401 1733 1693 1577 1098 931 582 322 210 171 72 52 344 174 137 39 47 32 8 23 10 8 11 13 31 37 23 2 11 8 22 18 24 5 20 13
0 0 0 0 0 252 770 1248 1572 1538 1455 1146 817 496 252 100 86 63 103 240 156 109 97 79 51 62 8 1 5 6 22 26 45 35 17 0 0 1 26 27 5 5 0
0 0 0 0 0 58 616 1257 1400 1324 1351 1030 736 462 242 81 51 54 50 58 8 2 7 6 16 11 16 1 7 0 25 25 70 45 44 20 23 18 15 0 16 18 26
22 8 7 3 1 19 642 1418 1251 1308 973 985 696 488 239 67 31 76 74 3 4 2 0 1 4 3 2 2 2 1 0 36 41 62 77 64 29 58 39 59 27 20 22
12 179 103 23 1 126 859 1421 1200 1252 835 859 733 430 167 52 22 88 29 2 1 1 0 0 0 1 1 2 2 3 12 43 29 73 61 82 78 66 47 54 57 26 26
0 2 343 189 160 203 913 1117 755 741 544 758 712 354 85 18 22 82 6 3 2 3 1 2 0 1 1 2 2 3 29 43 43 81 72 62 61 78 63 69 42 20 38
0 0 17 321 510 680 850 492 375 394 432 899 583 176 68 10 23 58 19 4 2 1 1 2 1 0 1 1 1 1 1 2 30 49 48 60 47 86 77 52 68 18 24
0 0 0 140 678 796 323 180 240 295 379 726 344 46 22 2 18 33 22 15 22 3 5 2 3 3 1 2 2 0 0 1 4 32 40 43 54 40 47 57 59 46 10
0 0 0 0 503 396 184 73 202 172 227 379 49 21 2 1 10 3 5 8 15 17 32 6 1 0 0 0 0 0 0 0 0 0 0 8 26 50 46 44 54 54 33
0 0 3 1 68 294 209 202 205 98 71 52 2 11 1 2 1 1 4 5 9 18 3 26 3 2 1 1 0 0 0 0 0 0 0 0 1 1 12 14 5 4 5
0 0 1 3 5 2 36 7 6 15 7 2 1 9 5 2 1 1 0 9 6 12 27 9 3 2 2 1 0 0 0 0 0 0 0 2 0 0 0 0 0 0 0
0 0 1 1 2 6 4 1 2 5 5 3 3 1 2 2 3 0 6 7 5 8 1 6 11 2 1 1 1 0 0 0 0 0 0 0 0 0 0 0 0 0 0
0 2 1 4 2 4 3 6 2 2 1 0 0 1 0 1 3 1 1 1 2 1 4 8 4 1 0 0 0 0 2 1 0 0 0 1 0 0 0 0 0 1 2
2 5 2 3 5 5 5 4 7 3 3 1 1 3 2 1 3 1 2 2 1 2 2 1 2 4 2 5 2 0 0 0 0 0 0 0 0 3 0 2 3 1 0
7 7 6 4 4 4 4 6 3 3 4 4 3 3 3 3 3 4 4 5 8 4 10 9 7 5 3 0 0 1 0 1 5 4 1 0 4 2 4 2 5 8 7
3 2 4 2 2 1 4 3 2 1 3 4 4 4 3 4 5 4 8 8 6 7 7 7 6 4 3 3 2 2 4 7 8 7 7 4 2 1 2 1 4 4 7
1 1 0 2 1 2 1 2 3 3 1 3 4 3 4 4 4 6 6 5 4 5 6 4 4 6 4 2 3 2 3 6 7 5 5 3 2 1 6 1 3 4 3
1 1 0 1 1 1 0 2 3 2 2 2 1 1 2 3 2 1 3 3 1 3 2 4 1 2 2 1 1 1 2 3 5 3 3 3 3 4 2 0 1 3 5
1 0 0 1 1 0 0 2 2 3 1 0 0 1 1 1 0 0 0 0 1 1 1 1 1 2 1 1 0 0 1 2 3 3 4 2 1 1 1 1 2 3 0
2 2 2 1 0 0 1 3 1 0 0 0 0 0 0 0 0 0 0 0 0 0 1 1 1 1 2 0 0 0 0 0 2 2 1 1 0 0 0 0 0 0 0
1 0 0 0 0 0 0 1 0 0 0 0 0 0 0 0 0 0 0 0 1 1 1 1 1 1 2 1 0 0 1 0 2 1 0 0 0 0 1 0 0 0 0
2 1 1 1 1 0 0 0 0 0 0 0 0 0 0 0 0 0 0 0 0 0 1 1 2 1 0 1 1 1 1 0 0 0 0 0 0 0 0 0 0 0 0
0 0 0 0 0 0 0 0 0 0 0 0 0 0 0 0 1 1 0 1 1 0 1 0 0 1 3 1 0 0 0 0 0 1 1 0 0 0 0 0 0 0 0
0 0 0 0 0 0 0 0 0 1 0 1 1 1 1 0 0 0 1 1 0 0 0 0 2 1 0 0 0 0 0 0 0 0 1 0 0 0 0 0 0 0 0

GFSMW_con_mlcape_093.txt.gz
CAPE
0 0 0 0 0 0 0 64 1679 1902 1909 1708 1563 1334 1234 967 803 809 722 604 649 706 544 395 277 252 147 58 3 3 2 7 26 21 2 12 0 0 0 0 0 0 0
0 0 0 0 0 0 0 389 1688 2008 1976 1694 1601 1346 1060 663 550 699 573 586 640 580 458 337 274 193 87 67 22 17 11 10 19 24 14 0 0 0 0 0 0 0 0
0 0 0 0 0 0 0 834 1845 2072 1876 1674 1153 834 627 463 392 386 369 325 364 424 317 288 255 229 161 66 35 20 5 8 15 8 0 2 0 2 4 0 8 0 0
13 0 0 0 0 0 47 1171 1860 1923 1699 1522 1378 1135 893 646 384 280 221 211 236 233 215 184 112 106 87 73 62 32 2 3 7 15 22 0 0 0 0 10 11 5 10
42 30 41 20 0 0 919 1745 1821 1793 1656 1378 1169 997 783 429 355 304 236 169 128 146 156 147 112 107 61 60 113 58 1 0 1 0 15 2 0 2 0 0 0 5 2
27 35 31 26 25 3 1525 1920 1727 1726 1631 1269 1103 922 701 431 351 297 207 188 217 178 135 129 69 30 9 38 89 86 18 1 0 3 2 2 0 0 0 0 0 0 0
13 0 0 2 0 1 33 1614 1721 1686 1601 1397 1158 943 749 488 302 228 244 198 106 52 5 0 6 10 21 19 26 53 48 5 0 0 0 0 0 1 18 30 5 0 0
0 0 0 0 0 73 111 1093 1364 1574 1322 1367 1219 949 699 464 292 270 149 61 6 1 0 0 1 2 0 16 9 33 30 19 1 0 1 5 0 15 45 41 63 49 30
0 0 0 0 0 0 648 1137 1270 1282 1116 1106 1033 935 723 498 363 258 152 35 0 0 0 0 1 1 2 4 3 16 8 26 3 1 1 6 15 58 48 48 52 51 37
0 0 0 0 0 2 3 503 582 657 935 955 936 835 645 341 305 231 112 30 2 0 0 0 0 2 2 0 1 20 7 14 3 2 4 0 10 39 46 47 30 13 28
0 0 0 2 1 3 0 0 204 61 373 640 906 722 386 335 252 182 98 31 4 0 0 1 2 1 1 0 0 1 1 1 1 2 3 5 23 9 22 31 21 31 22
0 1 0 1 0 4 1 1 0 330 308 541 613 455 220 147 170 104 96 86 49 3 0 1 0 1 0 0 0 0 1 1 8 3 5 3 5 1 12 23 34 0 6
0 0 0 0 3 3 4 6 2 0 272 360 288 149 57 46 45 105 149 121 93 10 4 1 0 0 0 0 0 0 0 0 0 0 0 1 0 0 0 5 11 7 14
2 3 3 4 3 3 3 4 6 3 17 35 21 20 13 3 5 20 31 17 8 9 10 5 1 1 1 0 0 0 0 0 0 1 1 0 0 0 0 0 0 1 1
4 7 6 5 4 3 2 3 6 6 4 1 0 0 0 0 0 0 0 0 0 0 0 0 0 0 0 0 0 0 0 0 0 1 0 0 0 0 0 0 0 0 3
4 6 5 5 4 4 4 2 5 7 5 6 4 4 0 0 2 3 4 3 3 5 2 4 4 3 3 2 0 0 0 0 0 0 0 2 1 5 1 1 4 0 0
4 5 3 3 3 3 4 2 4 3 5 6 6 6 7 8 6 4 9 7 8 8 9 9 7 7 7 2 1 0 3 2 3 4 3 3 3 3 4 5 5 6 6
3 3 2 2 1 1 2 2 2 2 1 3 4 4 5 7 7 5 9 12 8 11 12 9 6 8 10 7 9 7 6 8 7 4 3 4 5 3 2 2 3 4 4
2 1 2 1 1 1 1 2 3 3 3 3 3 2 3 2 5 7 7 6 7 7 7 4 5 7 6 7 7 4 7 8 6 4 2 2 3 4 3 1 5 7 5
1 2 1 1 1 1 1 2 2 2 2 3 2 2 2 1 2 2 4 3 3 4 2 3 2 1 2 2 4 4 5 7 6 3 2 2 2 2 2 1 2 3 4
1 0 1 1 1 0 1 1 2 2 2 2 2 1 1 1 0 0 0 2 3 2 2 1 1 2 2 1 2 2 2 4 4 3 2 1 1 1 2 1 1 2 0
0 0 0 0 0 0 1 1 0 0 0 1 1 1 0 1 1 0 0 0 1 2 2 2 2 0 1 1 2 1 0 1 3 1 0 0 0 0 0 0 0 0 0
0 0 0 0 0 0 0 0 1 1 1 1 1 1 1 1 1 0 0 0 0 1 1 1 0 0 0 0 0 0 0 0 0 0 0 0 0 0 0 0 0 0 0
0 0 0 0 0 0 0 0 0 0 0 0 0 1 0 0 0 1 0 0 0 0 1 0 0 0 0 0 0 0 0 0 0 0 0 0 0 0 0 0 0 0 0
0 0 0 0 1 0 0 0 0 0 0 0 0 0 1 2 1 0 0 0 0 0 0 0 0 0 0 0 0 0 0 0 0 0 0 0 0 0 0 0 0 0 0
0 0 0 0 0 0 0 0 0 0 0 0 0 0 0 0 0 0 0 0 1 1 0 0 0 0 0 0 0 0 0 0 0 0 0 0 0 0 0 0 0 0 0

GFSMW_con_mlcape_096.txt.gz
CAPE
0 0 0 0 0 0 0 0 453 1339 1849 1683 1324 1083 1338 1191 1027 845 712 859 891 764 730 661 498 386 309 164 55 18 0 0 3 14 45 5 0 0 0 0 0 0 0
0 0 0 0 0 0 0 0 266 1121 1617 1707 1594 1200 1089 932 754 642 741 579 656 466 648 542 438 364 318 159 65 29 2 8 5 3 0 0 1 0 0 0 0 0 0
0 0 0 0 0 0 0 0 159 789 1533 1818 1507 1025 483 492 651 682 582 441 381 346 432 423 356 273 216 135 79 21 12 14 7 2 0 0 1 1 0 0 0 0 0
52 27 1 0 0 0 0 0 392 945 1572 1710 1426 941 1048 973 697 469 313 308 339 388 368 344 287 230 148 97 60 35 20 20 20 17 0 0 0 0 1 0 0 0 0
20 11 18 19 18 4 4 57 782 1327 1672 1444 1362 1153 1061 695 301 198 252 191 213 245 238 291 212 168 102 68 56 25 7 23 20 9 1 0 0 0 0 0 0 0 0
0 0 0 0 1 1 165 1138 1247 1579 1508 1302 1134 1206 843 515 394 266 195 113 91 89 168 141 144 112 73 60 86 45 9 8 20 9 5 0 0 0 0 0 4 0 0
0 0 0 0 0 0 6 696 1669 1606 1453 1282 961 909 648 474 490 274 156 101 77 55 134 124 129 100 81 52 35 76 35 13 5 8 3 0 0 0 0 0 5 4 0
0 0 0 0 0 0 0 294 1502 1444 1157 1014 769 577 455 446 367 239 154 142 109 57 53 105 105 68 25 6 19 38 61 11 3 0 3 1 0 0 0 0 2 0 0
0 0 0 0 1 4 4 0 1213 1043 1009 871 684 593 477 287 235 163 158 106 46 21 20 20 0 0 0 0 2 35 31 20 4 3 2 1 0 0 0 0 7 6 20
1 0 0 1 3 7 5 4 152 559 521 487 476 472 401 288 209 151 144 140 79 0 0 0 0 1 2 2 4 12 3 5 15 2 7 1 0 0 1 2 18 31 52
1 2 2 1 1 3 5 5 1 40 64 37 259 308 228 236 188 162 142 101 12 0 0 0 0 1 0 2 4 1 1 31 1 1 10 1 0 0 0 3 9 22 22
0 2 1 4 2 2 3 3 5 0 0 0 149 142 157 185 186 141 97 29 4 0 0 0 0 1 2 2 1 0 0 5 5 1 1 3 1 0 1 3 5 2 7
4 1 2 2 6 4 3 2 6 5 0 10 59 71 101 180 163 107 30 30 12 1 0 0 0 0 1 2 0 0 0 0 0 2 1 1 1 0 0 0 4 0 0
5 5 4 5 5 5 4 3 2 8 3 6 32 37 37 29 14 11 9 23 42 45 3 1 1 0 1 1 0 0 0 0 0 2 2 1 1 0 1 2 0 1 0
6 5 5 5 4 4 4 4 2 4 6 5 1 2 0 0 0 0 0 0 0 0 0 0 0 0 0 0 0 0 0 0 1 0 0 0 0 0 0 0 0 1 0
6 4 5 2 4 4 3 4 5 6 7 7 8 5 5 4 3 0 0 3 4 3 2 2 2 2 4 1 0 0 0 0 0 0 0 0 0 0 0 0 0 0 0
7 5 4 3 3 3 4 5 5 4 2 6 7 7 8 10 11 11 7 6 7 8 9 8 6 12 9 6 2 0 0 0 2 3 4 5 8 6 6 13 10 11 8
5 4 3 3 2 1 3 2 3 4 2 1 3 4 6 6 5 6 11 10 10 11 11 12 10 12 10 10 11 7 6 6 6 5 4 7 6 4 4 5 6 9 6
2 1 1 2 2 2 2 2 2 2 5 5 3 2 0 3 5 2 2 4 7 7 7 5 6 7 7 7 6 5 6 10 7 3 2 3 3 5 2 1 9 12 7
1 2 1 1 1 2 1 0 1 1 2 2 3 3 3 4 0 1 2 3 3 3 2 4 3 4 5 4 2 2 3 6 5 3 3 3 3 3 4 2 3 5 5
1 1 2 3 2 2 1 0 0 0 1 1 1 1 0 1 2 3 3 1 2 2 2 2 2 2 3 5 4 2 1 3 3 2 2 1 2 2 2 1 1 2 1
0 0 0 0 0 1 0 0 0 1 1 2 1 1 0 0 0 0 1 1 3 1 1 1 1 0 1 3 4 3 2 1 1 1 0 1 1 1 0 0 0 0 0
0 0 0 0 0 0 0 0 1 1 1 0 0 1 1 0 0 0 1 0 1 1 1 0 0 0 0 0 1 2 2 1 0 0 2 1 0 0 0 0 0 0 0
0 0 0 0 0 0 0 0 0 1 0 0 0 1 0 0 0 0 0 0 0 0 0 0 0 0 0 0 0 0 1 0 0 0 0 0 0 0 0 0 0 0 0
1 0 0 0 0 0 0 0 0 0 0 0 0 0 1 1 1 1 1 1 0 0 0 0 0 0 0 0 0 0 0 0 0 0 0 0 0 0 0 0 0 0 0
0 0 0 0 0 0 0 0 0 0 0 1 0 0 0 0 0 0 0 1 1 1 0 0 0 0 1 1 1 1 1 1 0 0 0 0 0 0 0 0 0 0 0

GFSMW_con_mlcape_099.txt.gz
CAPE
0 0 0 0 0 0 0 0 55 794 1761 1913 1800 1602 1504 1416 1235 1300 1162 1138 1054 869 731 566 513 486 456 277 250 135 77 12 2 6 8 3 15 13 21 16 1 0 0
0 0 0 0 0 0 0 0 0 685 1351 1676 1647 1616 1467 1288 1138 1069 1093 1176 1029 902 737 559 502 406 323 149 123 75 26 4 1 5 4 0 1 1 6 2 1 0 0
0 0 0 0 0 0 0 0 0 406 1115 1581 1623 1217 858 639 827 889 925 1022 898 836 748 416 407 374 304 184 61 75 36 14 1 0 3 1 0 1 0 1 1 0 0
0 0 0 0 0 0 0 0 0 461 1123 1703 1497 1184 1063 1019 904 883 826 544 532 543 400 341 260 320 240 149 92 33 12 1 2 4 7 0 0 0 0 1 0 0 0
0 0 0 0 0 0 0 1 8 456 948 1597 1550 1221 1216 973 685 646 455 565 383 366 182 190 224 211 178 128 66 21 4 1 0 5 4 4 0 0 0 0 1 0 0
0 0 0 0 0 0 0 2 248 638 1359 1627 1582 1291 1105 831 563 449 482 339 253 248 225 203 213 230 136 76 63 40 3 1 2 12 16 15 1 0 0 0 0 0 0
0 0 0 0 0 0 0 3 225 1373 1599 1630 1578 1200 979 677 595 467 452 205 143 161 163 90 115 127 69 29 52 31 0 1 4 6 5 1 0 0 0 0 1 1 0
0 2 0 0 0 0 4 1 115 1734 1706 1511 1322 953 564 606 461 387 288 203 128 93 48 58 97 35 30 44 31 49 21 4 11 9 12 5 0 0 0 0 0 0 0
0 1 1 0 0 4 4 8 4 1363 1501 1286 818 596 416 405 355 250 213 142 79 58 48 29 17 22 63 33 53 41 21 19 10 3 19 1 0 0 0 0 0 0 0
0 2 2 1 1 4 6 6 7 5 726 795 605 373 246 213 203 230 210 91 48 44 11 11 0 2 0 0 0 0 2 15 15 16 10 2 1 0 0 0 0 0 1
3 2 2 2 2 3 6 7 8 2 0 114 258 265 115 49 118 131 71 39 30 38 30 7 0 0 0 0 0 2 2 6 6 7 4 1 1 0 0 0 0 0 2
1 1 2 3 3 4 6 7 8 6 3 0 33 30 5 4 83 67 67 40 68 35 1 0 0 0 0 0 0 1 0 1 1 3 28 15 1 1 0 0 0 0 0
1 2 3 3 5 5 6 6 10 7 5 0 0 4 0 1 64 47 54 52 17 3 0 0 0 0 0 1 0 0 0 0 0 0 28 0 1 1 1 0 0 0 0
3 4 3 3 5 4 5 6 8 6 5 3 7 13 23 51 24 52 56 33 4 1 0 0 0 0 1 1 0 0 0 0 0 1 13 3 11 3 1 1 0 0 0
6 6 5 4 4 5 4 5 5 7 1 8 4 2 1 0 2 1 0 0 0 0 0 0 0 0 0 0 0 0 0 0 0 0 1 0 0 0 0 1 0 0 0
5 4 3 4 4 4 4 4 5 4 2 2 7 7 6 3 4 5 4 3 1 2 1 1 1 1 4 3 0 0 0 0 0 0 1 3 1 0 0 0 0 0 0
4 4 3 3 3 3 3 4 3 3 2 0 2 3 4 9 12 10 8 9 8 8 6 8 7 11 8 5 1 0 1 1 4 5 5 4 9 6 6 10 7 9 6
3 3 2 2 2 2 2 3 4 2 3 2 1 1 0 2 6 8 12 11 11 11 13 12 12 13 14 9 5 4 5 5 5 6 7 7 7 7 5 4 10 12 10
2 2 2 2 2 2 2 3 2 1 3 3 3 3 1 0 2 3 4 4 6 6 7 6 7 8 8 5 4 3 4 8 9 4 3 4 5 6 6 5 8 13 12
1 1 1 2 2 2 1 1 0 0 2 1 1 2 3 4 2 4 3 1 2 4 2 1 3 4 6 6 3 3 4 7 7 4 3 2 4 5 4 6 7 10 5
1 0 1 2 1 1 0 0 1 1 2 1 1 0 1 1 2 2 2 4 5 3 2 1 1 2 1 4 5 3 3 4 4 3 3 1 4 4 4 2 2 6 1
0 0 0 1 0 0 0 0 1 2 1 0 0 1 1 1 0 1 1 1 1 2 2 2 3 1 2 2 4 4 3 2 2 3 2 3 3 3 2 0 1 0 0
0 0 0 1 2 0 1 1 1 1 0 0 0 1 1 1 1 0 0 0 0 1 1 1 1 1 0 1 3 3 2 2 1 1 4 3 1 1 1 0 0 0 0
0 0 0 0 1 1 0 1 0 0 0 0 0 1 1 0 0 1 0 0 0 0 0 0 0 0 1 0 1 1 0 1 0 0 0 1 0 0 0 0 0 0 0
0 0 0 0 0 0 0 0 0 0 0 0 0 0 0 1 2 1 0 1 0 0 0 0 0 0 0 0 0 0 0 0 0 0 0 0 0 0 0 0 0 0 0
0 0 0 0 0 0 0 0 0 0 0 0 0 0 0 0 0 1 0 2 1 1 0 0 0 0 1 2 2 1 1 0 0 0 0 0 0 0 0 0 0 0 0

GFSMW_con_mlcape_102.txt.gz
CAPE
0 0 0 0 0 0 0 0 0 0 775 1666 1695 1585 1461 1307 1105 838 659 561 664 678 712 599 467 335 337 246 272 188 205 118 17 1 7 4 6 5 14 26 13 7 7
0 0 0 0 0 0 0 0 0 0 551 1420 1778 1727 1544 1488 1341 1044 804 575 675 679 744 604 535 440 472 335 311 180 166 107 23 8 4 1 1 10 20 11 20 8 2
0 0 0 0 0 0 0 0 0 0 430 1160 1843 1480 1521 1338 1235 1141 1053 961 950 869 876 673 540 470 363 278 185 140 91 96 4 1 2 0 4 0 0 4 13 3 1
0 0 0 0 0 0 0 0 0 0 488 1283 1558 1415 1406 1060 941 1081 1202 1095 1031 971 949 748 626 540 271 246 159 117 60 20 20 1 0 0 0 0 0 1 0 1 1
0 0 0 0 0 0 0 0 0 0 0 1420 1369 1187 1137 1211 947 982 981 826 739 868 933 690 574 335 198 195 130 57 37 36 28 1 0 0 0 0 0 0 1 1 1
0 0 0 0 0 0 0 0 0 0 0 1502 1531 1300 931 1088 1028 940 956 740 715 835 646 515 351 190 173 124 74 56 9 4 0 0 1 0 0 0 0 0 1 0 0
0 0 0 0 0 0 3 0 4 0 0 1138 1557 1438 1298 1130 981 861 784 716 658 531 383 330 170 123 155 111 75 25 1 0 2 2 1 0 0 0 0 0 0 0 1
0 0 0 0 0 1 4 5 3 2 1 1124 1573 1552 1365 1007 841 733 543 466 442 413 287 253 121 130 97 86 58 35 0 1 3 5 2 1 0 0 0 0 0 0 1
0 0 0 0 1 2 5 6 6 2 4 1517 1324 1267 909 821 674 600 438 360 266 128 166 115 88 55 46 59 37 1 4 2 3 10 12 6 1 0 0 0 0 0 1
0 0 0 0 2 3 3 3 5 4 7 124 1123 898 665 476 402 341 326 234 152 98 118 70 53 43 42 22 13 22 26 36 24 19 9 14 5 0 0 0 0 0 0
0 0 0 0 2 3 3 4 6 7 8 3 151 437 359 283 263 250 171 140 78 58 53 16 20 6 9 5 4 1 0 0 0 6 19 14 10 1 1 0 0 0 0
0 0 2 2 3 5 5 5 6 8 8 5 0 193 219 160 121 81 43 19 23 6 0 2 9 1 1 0 0 0 0 0 0 0 3 0 2 2 0 1 0 0 0
1 1 2 3 3 5 5 5 6 7 7 7 0 25 78 37 52 23 27 13 1 2 10 16 4 0 0 0 0 0 0 0 2 1 2 1 3 19 2 2 1 0 0
2 2 3 3 3 4 4 5 5 4 5 6 5 1 1 0 11 21 20 7 14 21 0 0 1 0 0 0 0 0 0 0 0 0 0 1 1 18 3 1 1 1 1
1 2 3 3 3 3 4 4 4 4 4 2 4 11 7 2 1 3 1 2 4 0 0 0 0 0 0 0 0 0 0 0 0 0 3 4 0 0 0 0 0 1 1
1 2 2 2 3 4 4 4 4 3 3 7 6 3 5 9 11 8 4 2 1 1 1 1 1 1 0 2 0 0 0 0 1 0 2 2 9 11 2 1 1 0 1
2 2 1 3 3 2 2 3 3 3 3 4 6 2 0 1 5 7 12 9 9 8 9 9 7 7 8 5 1 0 0 2 5 5 5 4 4 7 8 3 3 7 4
0 1 1 0 2 2 2 3 3 2 4 3 5 3 5 0 0 0 6 7 9 12 12 12 11 11 8 6 8 5 6 6 7 7 6 7 7 6 3 7 13 17 13
0 0 1 2 2 2 2 2 1 2 1 3 6 2 4 6 0 0 2 4 5 6 6 5 6 7 6 4 5 5 9 9 10 5 4 4 4 6 6 4 8 11 9
0 1 0 1 0 1 2 1 0 0 0 2 2 3 3 3 1 2 4 3 4 6 4 3 3 2 4 2 4 3 6 8 8 4 4 5 5 5 4 3 5 6 4
0 0 0 2 3 0 0 0 1 0 1 1 2 2 3 2 2 2 2 2 3 3 3 3 2 2 2 4 3 3 2 5 5 5 5 3 6 6 5 1 2 5 1
0 0 0 1 0 1 0 0 0 1 2 3 2 2 1 1 1 2 1 1 2 1 1 2 2 1 1 3 4 4 2 2 3 2 0 1 3 4 4 4 4 0 0
0 0 0 0 1 0 1 1 0 0 0 0 2 2 2 2 2 0 0 1 1 1 1 1 1 1 1 1 3 4 1 1 1 1 1 2 2 2 1 2 0 0 0
0 0 0 0 0 1 0 0 0 0 0 0 0 1 2 1 0 1 1 0 0 0 0 0 1 0 0 0 0 0 0 0 0 1 1 1 0 0 0 0 0 0 0
0 0 0 0 0 0 0 0 0 0 0 0 0 0 0 1 1 0 0 1 0 1 0 0 1 1 1 1 1 0 0 0 0 0 0 0 0 0 0 0 0 0 0
0 0 0 0 0 0 0 0 0 0 0 0 0 0 0 0 0 0 0 0 1 1 1 1 0 0 2 2 1 0 0 0 0 0 0 0 0 0 0 0 0 0 0

GFSMW_con_mlcape_105.txt.gz
CAPE
0 0 0 0 0 0 0 0 0 0 0 467 821 964 948 1136 866 847 1024 1049 1009 1057 1170 1153 940 715 642 430 403 322 228 170 143 137 118 35 57 39 34 30 20 37 22
0 0 0 0 0 0 0 0 0 0 0 5 857 1056 1024 1164 1193 1035 944 956 861 887 1024 1039 796 601 514 370 355 285 246 166 97 69 23 12 5 6 15 35 48 53 30
0 0 0 0 0 0 0 0 0 0 0 0 794 1404 1228 1217 1163 1113 1098 1009 1025 878 930 901 649 493 435 421 448 319 304 172 73 46 29 2 0 0 3 2 15 29 25
0 0 0 0 0 0 0 0 0 1 0 0 322 1207 1051 1036 1245 1472 1348 1240 1070 892 874 787 613 520 571 566 427 364 284 161 109 44 25 0 1 11 0 2 2 21 10
0 0 0 0 0 0 0 0 1 1 0 1 0 1206 1336 1238 1442 1720 1630 1390 1106 966 817 741 705 731 656 519 381 234 195 148 97 64 18 2 0 0 0 0 0 0 2
0 0 0 0 0 0 0 0 1 2 2 1 3 531 1274 1379 1469 1527 1519 1309 1053 1031 891 743 732 641 661 511 371 166 170 119 84 64 47 8 0 0 0 0 1 2 0
0 0 0 0 0 0 0 0 2 3 4 4 5 141 1268 1344 1396 1423 1456 1173 945 1042 869 796 698 819 656 446 260 144 109 83 58 22 25 14 3 1 0 9 8 2 1
0 0 0 0 0 1 0 1 4 6 5 4 5 324 1107 1332 1344 1413 1357 1055 796 859 708 659 654 715 441 226 204 185 112 56 27 15 1 1 1 2 0 1 18 5 1
0 0 0 0 0 3 3 4 5 4 6 5 7 1010 1236 1233 1102 1257 1300 1016 756 658 452 479 427 415 222 168 168 111 117 64 5 1 1 2 6 23 3 0 0 1 1
0 0 0 0 0 2 3 3 3 4 5 5 8 742 1281 1119 915 838 1030 879 697 508 335 277 243 164 98 124 89 92 82 27 1 0 2 7 21 19 26 28 11 0 0
0 0 0 0 1 1 3 3 5 6 7 8 8 45 929 862 579 529 571 464 288 187 155 126 118 128 73 75 73 76 20 1 3 4 4 10 35 17 24 19 4 2 7
0 0 0 1 1 2 3 3 4 6 5 6 8 61 391 431 342 278 241 184 137 109 86 50 56 29 28 25 21 9 6 5 8 6 4 7 12 13 24 3 2 2 1
0 0 0 1 2 2 3 3 4 5 6 6 9 3 0 52 129 110 102 87 74 78 51 37 17 3 0 8 5 1 1 2 3 3 5 2 0 2 3 2 1 2 1
0 1 1 1 2 2 3 3 4 3 3 5 8 9 11 8 1 22 32 42 23 26 15 2 1 0 0 0 0 0 1 0 1 0 0 0 0 0 5 2 1 1 1
0 1 2 3 2 3 3 3 4 3 3 6 6 7 5 6 8 3 1 1 2 1 2 0 0 0 0 0 0 1 0 0 0 0 0 1 8 6 0 2 2 1 2
0 1 2 2 3 3 2 2 4 3 3 4 6 6 3 3 7 9 10 4 5 2 5 1 0 1 3 3 0 0 0 0 0 0 2 4 2 8 12 4 1 0 1
0 0 2 2 3 2 2 1 2 3 4 4 4 4 6 4 0 2 4 3 11 11 9 9 6 7 9 6 2 1 1 3 5 4 5 3 3 2 3 10 7 8 6
1 2 3 2 2 3 1 2 2 3 4 4 4 4 5 5 4 0 0 3 4 5 8 13 12 10 6 5 7 6 7 8 7 6 6 8 7 7 2 8 12 11 10
1 1 1 2 1 1 1 3 2 2 2 3 4 3 4 3 6 4 2 1 3 2 6 5 5 6 5 5 5 5 6 8 7 5 6 5 6 8 7 2 6 11 12
1 1 2 2 1 1 1 0 1 0 1 3 2 2 2 2 4 3 4 2 2 2 2 5 3 5 6 5 1 1 3 6 6 4 5 6 7 4 3 4 2 4 3
2 1 1 1 2 1 1 0 0 1 2 2 3 2 2 2 2 1 1 2 1 1 3 4 2 2 2 5 6 2 0 3 3 3 4 1 3 7 7 4 4 7 3
1 2 2 2 2 2 1 1 0 2 2 3 3 3 3 2 2 2 2 1 1 1 2 1 3 2 1 3 5 4 3 2 2 2 0 1 2 4 4 4 5 3 1
1 1 1 1 2 2 0 0 0 0 0 1 4 3 2 2 2 2 2 1 1 1 2 2 1 1 2 2 3 3 2 2 1 1 2 3 3 3 2 2 1 1 1
1 0 0 0 0 0 0 0 0 0 0 0 3 3 4 3 2 1 1 3 3 3 3 2 2 2 2 2 2 2 2 1 1 1 1 2 1 1 1 1 1 1 1
0 0 0 0 0 0 0 0 0 0 0 0 0 0 1 0 1 0 1 1 1 1 1 1 1 1 1 0 1 2 2 2 1 1 1 1 1 1 1 1 0 0 0
0 0 0 0 0 0 0 0 0 0 0 0 0 0 0 0 0 0 1 0 1 1 1 0 1 0 1 1 0 0 0 0 0 0 0 0 0 0 0 0 0 0 0

GFSMW_con_mlcape_108.txt.gz
CAPE
0 0 0 0 0 0 0 0 0 0 0 0 13 363 1042 1210 1200 1752 1766 1525 1471 1396 1342 1416 1399 1182 1199 1154 1166 1097 952 786 615 301 183 216 357 340 338 164 19 59 70
0 0 0 0 0 0 0 0 0 0 0 0 0 58 509 735 936 1298 1628 1615 1406 1319 1333 1414 1336 1196 1275 963 1017 740 566 593 547 279 118 94 102 191 235 153 60 61 74
0 0 0 0 0 0 0 0 0 0 0 0 0 0 345 744 842 977 1333 1410 1501 1305 1271 1303 1415 1268 1316 972 884 642 560 396 278 349 108 8 27 1 30 98 58 140 104
0 0 0 0 0 0 0 0 0 0 0 0 0 0 12 617 844 990 1025 1200 1429 1585 1391 1372 1507 1401 1210 968 870 667 809 513 320 231 246 0 10 28 21 6 100 143 110
0 0 0 0 0 0 0 0 0 0 0 0 0 2 0 477 982 1013 1134 1335 1256 1403 1587 1449 1475 1365 1047 937 836 725 846 770 625 229 136 137 0 0 10 56 21 6 36
0 0 0 0 0 0 0 0 0 0 0 0 0 3 3 15 1077 1113 1364 1364 1434 1242 1401 1392 1465 1315 1008 804 832 1126 970 610 665 553 404 200 36 0 2 17 17 37 17
0 0 0 0 0 0 0 0 0 0 0 1 1 1 3 7 391 1432 1538 1553 1622 1280 1237 1270 1254 1147 977 1138 1247 1133 873 724 535 497 443 378 374 82 13 19 38 36 25
0 0 0 0 0 0 0 0 1 3 2 3 4 4 5 3 382 1246 1382 1610 1639 1298 1223 1155 1268 1242 1237 1206 1131 1014 857 679 502 345 302 133 90 11 6 1 7 1 0
0 0 0 0 0 0 0 1 4 4 4 4 4 7 6 6 491 1305 1439 1422 1625 1397 1159 1122 1067 980 1026 866 906 892 607 445 365 293 148 71 45 29 24 3 0 9 5
0 0 0 0 0 0 0 1 3 4 4 5 5 6 7 8 973 1462 1416 1372 1565 1500 1161 1021 937 856 734 571 717 622 503 196 307 204 139 36 42 9 13 65 7 22 2
0 0 0 0 0 0 0 1 4 3 3 3 5 4 9 801 916 1148 1373 1251 1450 1249 1091 962 680 681 571 427 349 235 269 222 233 148 99 26 53 4 24 56 41 22 27
0 0 0 0 0 0 0 3 3 1 3 3 3 7 8 27 574 931 1068 1033 1104 963 754 703 543 413 395 321 219 190 175 167 151 64 16 24 10 9 34 23 10 22 32
0 0 0 0 0 0 0 3 3 3 3 3 4 7 12 9 0 204 324 447 497 449 412 390 371 294 251 202 145 120 84 99 76 40 48 39 57 47 41 26 5 18 13
0 0 0 0 0 1 2 2 3 2 2 3 4 7 11 14 11 3 3 98 132 158 152 153 136 99 72 45 18 7 1 10 1 0 0 0 0 0 0 1 2 3 2
1 0 0 0 0 1 2 2 2 2 2 4 3 5 6 7 4 10 8 2 1 6 6 12 11 3 2 1 3 3 2 1 0 0 0 2 3 4 3 1 1 3 2
3 1 0 0 1 1 2 1 2 2 2 3 3 1 4 4 4 7 8 13 10 11 4 6 5 1 3 1 0 4 1 0 0 0 4 7 7 6 5 7 10 3 0
3 3 3 3 3 3 3 2 2 1 2 4 3 3 2 2 4 1 4 4 3 5 9 6 11 12 11 2 1 0 2 2 5 6 8 5 6 7 6 1 2 4 8
3 2 3 3 3 3 2 1 2 2 2 1 2 3 3 3 3 5 1 0 1 4 2 2 2 5 7 9 7 6 8 10 6 7 7 7 7 6 5 4 7 14 14
1 1 2 2 2 3 2 2 3 2 2 3 3 1 1 2 3 4 3 5 1 3 3 3 5 3 1 3 7 6 10 7 8 6 6 7 7 6 6 6 9 12 10
1 1 1 1 1 3 1 3 3 3 4 2 1 1 1 2 2 2 2 2 4 4 2 4 2 2 5 4 3 1 3 7 8 3 3 4 5 5 3 6 4 5 7
1 2 0 2 2 1 0 3 3 2 1 2 2 2 1 1 0 1 0 0 1 2 3 2 3 1 2 3 5 5 5 7 6 6 6 2 3 5 6 5 7 7 4
2 1 0 1 1 0 0 2 4 1 2 1 3 3 2 2 2 1 0 1 1 2 2 1 2 1 1 2 4 5 3 2 3 5 1 1 3 5 4 4 4 3 1
0 0 0 0 0 0 0 0 0 0 1 3 2 2 1 2 1 3 2 2 0 1 1 2 2 1 0 1 2 3 3 2 2 2 2 2 2 1 2 2 3 2 2
0 0 0 0 0 0 0 0 0 0 0 0 0 0 0 0 1 1 1 1 1 1 1 1 1 1 1 2 1 2 2 0 1 1 2 1 2 2 1 1 0 1 1
0 0 0 0 0 0 0 0 0 0 0 0 0 0 0 0 0 0 1 1 1 0 2 1 0 1 0 0 1 1 2 2 0 1 1 1 1 2 1 0 0 0 1
0 0 0 0 0 0 0 0 0 0 0 0 0 0 0 0 0 0 0 0 0 0 0 0 0 0 1 0 0 0 0 0 0 0 0 0 0 0 0 0 0 0 0

GFSMW_con_mlcape_111.txt.gz
CAPE
0 0 0 0 0 0 0 0 0 0 0 0 0 0 246 582 1133 1611 1964 2391 2201 2094 2155 2065 1827 1844 1663 1729 1762 1735 1409 1467 1456 1302 1032 803 688 549 414 457 439 343 150
2 2 0 0 0 0 0 0 0 0 0 0 0 0 0 42 372 1095 1342 1949 2404 2205 2108 2085 1816 1888 1554 1584 1494 1441 1297 1285 1376 842 638 384 403 345 489 484 405 359 274
0 0 0 0 0 0 0 0 0 0 0 0 0 0 0 0 122 718 796 1371 2109 2328 2200 1816 1938 1917 1568 1355 1467 1299 1185 1139 1103 822 371 144 83 172 287 408 375 349 246
0 0 0 0 0 0 0 0 0 0 0 0 0 0 0 0 0 399 690 1040 1563 2049 2184 2096 1774 2022 1703 1510 1416 1266 1254 1107 607 912 664 445 303 199 172 292 356 370 203
0 0 0 0 0 0 0 0 0 0 0 0 0 0 0 0 0 7 806 1085 1316 1754 1701 1714 1903 1931 1790 1730 1527 1222 1261 1041 805 664 511 616 355 263 198 199 347 134 274
0 0 0 0 0 0 0 0 0 0 0 0 0 1 1 1 1 0 195 1492 1384 1635 1626 1566 1528 1770 1943 1631 1697 1481 1136 1066 969 711 459 356 344 176 243 144 82 113 81
0 0 0 0 0 0 0 0 0 0 0 0 0 0 0 2 3 2 0 577 1375 1466 1673 1332 1647 1585 1756 1709 1718 1555 1092 1081 1170 980 650 407 429 207 170 259 179 106 129
0 0 0 0 0 0 0 0 0 0 0 0 0 0 1 3 3 1 0 268 1259 1424 1795 1462 1555 1628 1723 1779 1708 1376 1078 951 1121 911 835 685 528 534 390 253 161 40 122
0 0 0 0 0 0 0 0 1 0 0 1 1 3 4 3 4 3 1 21 870 1404 2038 1571 1406 1492 1583 1629 1623 1412 1424 1208 424 874 894 631 538 412 278 164 49 48 1
0 0 0 0 0 0 0 0 1 1 1 1 2 3 4 3 3 4 4 1 1039 1379 1829 1821 1485 1413 1477 1470 1512 1519 1575 1308 1047 827 617 447 368 265 277 199 130 58 9
0 0 0 0 0 0 0 0 0 1 2 4 4 4 2 3 4 6 4 270 1213 1232 1367 1586 1415 1308 1333 1294 1288 1265 1263 1004 779 611 485 421 374 239 158 116 83 80 45
0 0 0 0 0 0 0 0 1 2 4 4 2 3 2 4 7 6 257 578 742 1080 1217 1461 1285 1164 1171 1063 1055 1167 1051 768 590 457 379 375 289 250 185 111 113 83 64
0 0 0 0 0 1 0 0 1 3 3 1 3 3 3 7 9 7 0 1 482 746 815 1193 1304 1111 895 842 1033 1154 827 444 377 341 297 233 204 147 100 76 56 74 74
0 0 0 0 0 1 1 0 0 2 2 2 3 4 1 5 9 10 13 4 1 284 628 855 814 766 690 645 733 675 539 141 136 184 125 69 53 37 13 2 15 21 19
0 0 0 0 2 1 1 1 1 1 1 2 3 3 3 2 3 8 9 10 9 8 4 57 134 332 428 437 473 383 309 78 10 0 0 0 0 0 0 0 0 1 3
0 0 1 2 3 3 2 2 2 1 0 1 2 2 3 3 1 4 6 8 10 13 12 11 7 4 1 0 41 57 4 0 0 0 2 4 9 6 6 5 6 6 0
2 2 3 3 2 2 2 2 1 1 0 0 1 2 2 4 3 5 1 2 6 6 8 5 7 13 12 5 0 0 1 2 3 4 5 7 6 6 5 4 4 7 9
3 2 2 2 1 1 1 1 1 1 1 1 0 0 0 1 2 3 4 5 4 3 3 5 4 0 1 6 9 11 10 10 10 6 7 8 9 7 3 5 8 11 13
0 1 1 1 1 1 0 0 1 1 1 1 1 0 0 0 1 2 1 1 5 5 5 3 2 5 1 1 1 3 8 8 8 6 5 7 7 3 6 6 10 10 9
0 0 0 1 0 1 0 2 2 2 2 1 0 0 0 1 1 0 0 0 0 1 2 2 1 3 5 4 2 0 2 2 4 3 3 6 6 4 3 5 5 6 6
1 1 0 0 0 0 0 3 2 1 0 0 1 1 1 0 0 1 0 0 0 0 0 1 0 1 2 3 5 4 2 3 4 7 4 1 4 6 6 2 5 7 3
0 0 0 0 0 0 0 0 1 0 0 0 2 2 1 2 2 1 1 1 1 1 2 1 1 0 0 1 3 3 3 1 2 4 1 1 2 3 3 4 4 1 0
0 0 0 0 0 0 0 0 0 0 0 0 0 0 0 1 0 0 0 0 0 1 2 2 3 2 1 1 1 1 1 1 1 1 1 2 2 2 2 1 1 1 2
0 0 0 0 0 0 0 0 0 0 0 0 0 0 0 0 0 0 0 0 0 1 0 0 0 0 1 2 1 1 1 0 0 0 0 0 0 0 1 1 1 1 0
0 0 0 0 0 0 0 0 0 0 0 0 0 0 0 0 0 0 0 0 0 0 1 1 0 0 0 0 0 0 0 0 0 0 0 0 0 0 0 0 0 0 0
0 0 0 0 0 0 0 0 0 0 0 0 0 0 0 0 0 0 0 0 0 0 0 0 0 0 0 0 0 0 0 0 0 0 0 0 0 0 0 0 0 0 0

GFSMW_con_mlcape_114.txt.gz
CAPE
7 0 0 0 0 0 0 0 0 0 0 0 0 0 0 0 815 1681 2016 2120 2184 2290 2161 2282 2427 2124 1741 1652 1772 2033 1729 1692 1685 1509 1181 966 977 875 760 547 474 312 228
3 0 0 0 0 0 0 0 0 0 0 0 0 0 0 0 0 0 223 1624 2164 2272 2345 2373 2372 2328 1861 1580 1708 2047 1868 1555 1609 1444 1011 595 715 758 611 523 398 284 221
9 0 0 0 0 0 0 0 0 0 0 0 0 0 0 0 0 0 0 1050 1575 2224 1923 2204 2271 2144 1936 1544 1425 1826 1689 1300 1237 1293 667 239 51 433 441 584 352 338 243
0 0 0 0 0 0 0 0 0 0 0 0 0 0 0 0 0 0 0 9 604 831 1910 1678 2209 2017 2034 1567 1267 1474 1530 1234 965 1184 888 373 253 108 192 412 415 335 303
0 0 0 0 0 0 0 0 0 0 0 0 0 0 0 0 0 0 0 0 0 239 1365 1810 2001 2025 2035 1817 1300 1235 1444 1150 1034 896 934 804 512 494 377 382 374 502 386
0 0 0 0 0 0 0 0 0 0 0 0 0 0 0 0 1 0 0 0 0 4 1015 1528 1691 1859 1756 1731 1580 1434 1438 1166 1210 895 763 780 663 519 318 177 285 234 201
0 0 0 0 0 0 0 0 0 0 0 0 0 0 0 0 1 2 2 1 0 0 85 1135 1239 1648 1707 1698 1779 1712 1472 1287 1147 1054 745 684 571 491 245 257 204 170 170
0 0 0 0 0 0 0 0 0 0 0 0 0 1 1 1 1 2 2 2 1 0 0 895 1072 752 1466 1401 1461 1526 1652 1443 1251 1108 953 662 375 355 197 117 121 163 209
0 0 0 0 0 0 0 0 0 0 0 0 1 1 2 1 2 2 2 2 2 0 0 1 1010 1483 1619 1377 1390 1609 1510 1484 1192 1291 1088 823 601 467 322 272 257 260 104
0 0 0 0 0 0 0 0 0 0 0 0 1 2 3 2 2 3 3 2 2 2 1 0 874 1734 1678 1628 1602 1577 1412 1224 1220 894 388 545 244 145 489 322 169 112 81
0 0 0 0 0 0 0 0 0 0 1 2 2 2 3 2 3 3 4 4 2 2 4 1 635 1416 1485 1603 1578 1555 1384 1281 1228 1069 803 436 0 18 360 149 153 102 75
0 0 0 0 0 0 0 0 0 1 2 1 2 3 3 3 3 4 5 4 6 1 4 56 795 1169 1231 1199 1359 1516 1376 1282 968 1093 1006 650 323 378 322 231 204 124 139
0 0 0 0 0 0 0 0 0 1 1 1 2 3 3 3 4 4 4 4 8 0 57 705 893 946 1059 872 1289 1430 1404 1427 1274 1023 779 628 476 408 342 231 168 128 99
0 0 0 1 1 1 1 0 0 0 0 1 1 3 3 3 3 3 5 2 6 7 0 34 337 617 944 1025 1063 1202 1246 1164 1017 744 533 372 314 278 189 78 35 27 32
0 0 1 1 0 1 0 0 0 0 0 0 0 1 2 2 3 3 4 4 3 3 6 4 9 5 1 128 732 958 1081 1039 308 3 0 1 1 0 0 0 0 0 0
2 0 2 2 2 2 1 1 0 0 0 0 0 0 1 2 3 3 6 5 6 7 9 11 10 14 18 8 79 818 745 8 0 0 5 7 12 6 4 2 0 0 0
1 3 3 1 2 0 0 0 0 0 0 0 0 0 0 0 1 2 4 4 5 3 5 7 8 9 8 18 14 7 4 5 8 10 10 10 10 6 6 8 7 10 11
3 2 1 1 1 0 0 0 0 0 0 0 0 0 0 0 0 0 0 1 3 4 4 5 4 6 4 2 7 5 12 11 11 8 5 9 8 6 3 6 6 11 12
0 0 0 0 1 0 0 0 0 0 0 0 0 0 0 0 0 0 0 0 0 0 1 2 4 4 5 3 0 0 1 3 6 4 3 3 5 2 6 3 8 10 9
0 0 0 0 0 0 0 0 1 1 1 1 0 0 0 1 0 1 0 0 0 0 0 0 1 1 3 6 6 0 1 3 4 2 1 2 3 2 2 4 3 5 8
0 0 0 0 0 0 0 0 0 0 0 0 0 0 0 1 0 0 0 0 0 1 1 0 0 0 0 1 4 5 3 3 2 1 1 1 1 2 4 3 6 5 2
0 0 0 0 0 0 0 0 0 0 0 0 0 0 0 0 0 0 0 0 0 1 2 2 1 0 0 2 2 2 1 1 1 1 0 0 1 1 1 2 3 2 1
0 0 0 0 0 0 0 0 0 0 0 0 0 0 0 0 0 0 0 0 0 0 0 0 1 2 0 1 1 1 0 0 0 0 1 1 1 0 0 1 0 0 0
0 0 0 0 0 0 0 0 0 0 0 0 0 0 0 0 0 0 0 0 0 0 0 0 0 0 0 0 0 0 0 0 0 0 0 0 0 0 1 0 0 0 0
0 0 0 0 0 0 0 0 0 0 0 0 0 0 0 0 0 0 0 0 0 0 0 0 0 0 0 0 0 0 0 0 0 0 0 0 0 0 0 0 0 0 0
0 0 0 0 0 0 0 0 0 0 0 0 0 0 0 0 0 0 0 0 0 0 0 0 0 0 0 0 0 0 0 0 0 0 0 0 0 0 0 0 0 0 0

GFSMW_con_mlcape_117.txt.gz
CAPE
0 0 0 0 0 0 0 0 0 0 0 0 0 0 0 0 0 0 0 29 1028 1329 1476 1735 1680 1660 1604 1446 1690 1695 1522 1343 1223 1259 1087 1058 893 787 676 676 644 522 272
30 0 0 0 0 0 0 0 0 0 0 0 0 0 0 0 0 0 0 0 0 43 1141 1406 1572 1607 1471 1024 1308 1512 1511 1465 1435 1037 936 690 744 790 763 679 570 472 374
0 0 0 0 0 0 0 0 0 0 0 0 0 0 0 0 0 0 0 0 0 0 123 1160 1179 1311 1293 1034 902 967 1318 1343 1307 1140 770 411 441 347 558 666 533 371 305
0 0 0 0 0 0 0 0 0 0 0 0 0 0 0 0 0 0 0 0 0 0 0 0 643 1169 1097 869 676 786 1026 1028 817 1048 838 213 114 58 16 258 400 404 318
0 0 0 0 0 0 0 0 0 0 0 0 0 0 0 0 0 0 0 0 0 0 0 0 0 630 1002 879 775 685 1034 921 799 809 1094 732 223 131 76 32 214 365 315
0 0 0 0 0 0 0 0 0 0 0 0 0 0 0 0 0 0 0 0 0 0 0 0 0 0 879 1009 975 888 945 1171 1178 823 687 792 726 461 373 156 237 230 279
0 0 0 0 0 0 0 0 0 0 0 0 0 0 0 1 1 1 2 1 0 0 0 0 0 0 92 1014 1077 832 874 974 1136 863 773 727 709 579 479 299 223 214 243
0 0 0 0 0 0 0 0 0 0 0 0 0 0 0 0 1 0 0 1 2 1 0 0 0 0 0 473 892 745 754 1125 1149 1008 889 745 663 618 515 394 220 121 124
0 0 0 0 0 0 0 0 0 0 0 0 0 1 0 1 2 1 1 1 1 1 1 1 1 0 0 16 910 799 613 1106 1385 1260 1012 808 640 641 513 317 207 136 59
0 0 0 0 0 0 0 0 0 0 0 0 1 2 1 1 2 2 2 3 3 4 2 0 0 2 1 0 840 647 529 902 1163 1302 1157 872 583 387 391 273 169 116 79
0 0 0 0 0 0 0 0 0 0 1 1 2 2 2 2 2 2 3 3 3 4 4 4 2 2 2 0 801 892 511 812 914 1133 1116 893 515 430 400 312 80 70 115
0 0 0 0 0 0 0 0 0 1 0 0 0 1 1 2 2 3 2 2 3 3 3 5 4 1 1 1 636 1309 1053 829 880 1143 1033 746 494 466 217 68 0 0 31
0 0 0 0 0 1 0 0 0 1 0 0 0 0 1 2 3 3 2 2 2 3 3 4 3 2 2 1 397 1045 961 1019 820 1073 979 921 546 290 120 14 80 26 95
0 0 0 0 0 0 0 0 1 1 0 1 1 1 1 1 2 2 3 3 3 4 6 8 9 2 0 96 556 589 537 516 802 855 867 842 550 182 48 62 94 142 137
0 1 1 2 2 1 1 1 0 1 1 1 1 0 0 0 0 1 2 2 2 2 2 4 7 4 4 5 0 149 378 515 570 168 57 75 71 61 119 52 47 56 37
2 2 2 2 2 1 1 1 1 1 0 0 1 0 0 0 0 0 1 2 2 2 4 1 2 5 9 10 0 0 295 15 1 0 9 13 7 3 1 0 0 0 0
4 2 3 3 1 1 1 2 1 0 1 1 0 0 0 0 0 0 0 0 0 0 2 1 1 1 2 7 15 2 13 12 8 9 10 12 18 13 11 16 11 5 1
3 1 0 0 0 0 1 1 1 1 1 0 0 0 0 0 0 0 0 0 0 0 0 2 2 2 4 3 2 3 7 7 5 4 5 7 11 9 12 15 13 17 9
1 1 0 1 1 0 1 0 0 0 0 0 0 0 1 1 0 0 0 0 0 0 0 0 0 1 3 4 3 1 5 4 4 3 3 3 2 2 5 10 16 15 15
0 0 0 0 0 0 0 0 0 0 0 0 0 0 0 1 1 0 0 0 0 1 0 1 0 1 0 2 4 1 1 3 4 2 0 2 5 3 3 1 5 5 5
0 0 0 0 0 0 0 0 0 0 0 0 0 0 0 0 0 0 0 0 1 1 2 2 1 0 1 0 2 2 1 2 2 2 2 0 3 4 3 3 2 4 2
0 0 0 0 0 0 0 0 0 0 0 0 0 0 0 0 0 0 0 0 0 0 0 0 0 0 0 2 2 2 0 0 0 0 0 0 1 2 1 2 2 2 1
0 0 0 0 0 0 0 0 0 0 0 0 0 0 0 0 0 0 0 0 0 0 0 0 0 0 0 0 1 1 1 1 0 0 1 1 1 0 0 1 0 1 1
0 0 0 0 0 0 0 0 0 0 0 0 0 0 0 0 0 0 0 0 0 0 0 0 0 0 0 0 0 0 0 0 0 0 0 0 1 0 0 0 0 0 0
0 0 0 0 0 0 0 0 0 0 0 0 0 0 0 0 0 0 0 0 0 0 0 0 0 0 0 0 0 0 0 0 0 0 0 0 0 0 0 0 0 0 0
0 0 0 0 0 0 0 0 0 0 0 0 0 0 0 0 0 0 0 1 0 0 0 1 0 0 1 1 0 0 0 0 0 0 0 0 0 0 0 0 0 0 0

GFSMW_con_mlcape_123.txt.gz
CAPE
0 0 0 0 0 0 0 0 0 0 0 0 0 0 0 0 0 0 0 0 0 0 0 0 0 10 60 20 343 614 758 749 486 353 315 251 271 479 682 661 568 445 299
0 0 0 0 0 0 0 0 0 0 0 0 0 0 0 0 0 0 0 0 0 0 0 0 0 1 0 44 49 542 496 531 318 361 195 190 243 276 305 524 557 511 376
0 0 0 0 0 0 0 0 0 0 0 0 0 0 0 0 0 0 0 0 0 0 0 0 0 0 0 0 29 380 190 283 272 312 109 101 166 167 217 341 492 479 400
0 0 0 0 0 0 0 0 0 0 0 0 0 0 0 0 0 0 0 0 0 0 0 0 0 0 0 0 0 0 270 67 16 87 72 60 1 9 8 77 282 328 393
0 0 0 0 0 0 0 0 0 0 0 0 0 0 0 0 0 0 0 0 0 0 0 0 0 0 0 0 0 0 0 263 10 43 46 38 0 36 0 0 29 158 258
0 0 0 0 0 0 0 0 0 0 0 0 0 0 0 0 0 0 0 0 0 0 0 0 0 0 0 0 0 0 0 1 296 164 79 19 12 12 15 0 0 36 100
0 0 0 0 0 0 0 0 0 0 0 0 1 0 0 1 1 1 2 2 1 1 1 0 1 2 1 0 1 1 0 0 21 126 46 33 16 19 7 9 0 8 20
0 0 0 0 0 0 0 0 0 0 2 1 2 0 0 0 0 0 0 0 2 1 0 0 0 1 1 1 0 0 0 1 0 38 91 78 51 80 39 0 0 8 31
0 0 0 0 0 0 0 0 0 2 0 0 0 0 0 0 0 1 1 1 3 2 2 2 3 2 2 2 2 1 2 0 0 0 132 97 83 107 78 87 62 96 46
1 0 0 0 0 0 0 0 0 1 0 1 0 0 0 0 1 1 1 2 2 3 3 3 3 3 3 3 3 3 1 3 1 0 9 182 254 223 224 184 119 132 187
0 0 0 0 0 0 0 0 0 0 0 0 0 0 1 0 1 0 1 1 2 2 2 2 2 3 2 2 2 2 3 2 1 1 1 37 337 292 366 277 216 198 226
0 0 0 0 0 0 0 0 0 0 0 0 0 0 1 1 1 1 1 1 1 2 2 1 2 2 3 3 3 3 3 4 4 3 1 1 324 419 412 390 257 256 224
0 0 1 2 1 1 0 0 0 0 0 0 0 0 0 0 2 2 1 2 1 1 2 1 2 3 3 3 4 4 3 3 4 4 2 1 106 528 412 420 371 342 260
0 1 1 2 2 1 1 0 1 0 1 0 1 1 1 1 1 1 1 1 2 1 2 1 1 2 2 2 4 6 6 4 3 2 3 3 34 514 612 415 436 435 365
1 3 3 2 1 1 1 1 1 2 2 2 2 1 1 1 1 1 1 0 1 1 1 1 1 1 1 2 3 1 1 3 3 1 0 0 0 93 554 647 552 502 272
2 2 0 1 0 0 1 0 0 2 2 3 3 2 0 0 0 0 0 0 1 0 0 0 0 0 1 2 3 4 6 5 4 1 5 6 1 1 0 31 152 173 134
1 0 0 0 0 1 0 0 0 0 0 0 0 2 0 0 1 1 1 1 1 0 0 0 0 0 0 2 2 1 2 6 5 7 8 11 6 10 11 20 21 20 8
1 0 0 0 0 0 0 0 0 0 0 0 0 0 0 0 0 0 1 0 0 0 0 0 0 0 0 1 1 0 0 2 5 6 6 7 4 2 4 11 15 22 24
0 0 0 0 0 0 0 0 0 0 0 0 0 0 0 0 0 0 0 0 0 0 0 0 0 0 0 2 1 0 0 0 2 1 1 3 6 6 0 0 6 8 11
0 0 0 0 0 0 0 0 0 0 0 0 0 0 0 0 0 0 0 0 0 0 0 0 0 0 0 3 2 0 0 1 3 2 0 2 2 3 3 0 2 1 2
0 0 0 0 0 0 0 0 0 0 0 0 0 0 0 0 0 0 0 0 0 0 0 0 0 0 0 0 1 1 1 1 2 1 1 0 1 2 3 2 3 4 3
0 0 0 0 0 0 0 0 0 0 0 0 0 0 0 0 0 0 0 0 0 0 0 0 0 0 0 0 0 0 0 1 1 0 0 0 2 3 3 2 2 2 2
0 0 0 0 0 0 0 0 0 0 0 0 0 0 0 0 0 0 0 0 0 0 0 0 0 0 0 0 0 0 0 0 0 0 0 0 0 1 1 2 2 1 1
0 0 0 0 0 0 0 0 0 0 0 0 0 0 0 0 0 0 0 0 0 0 0 0 0 0 0 0 0 0 0 0 0 0 0 0 0 0 0 0 0 0 0
0 0 0 0 0 0 0 0 0 0 0 0 0 0 0 0 0 0 0 0 0 1 0 0 0 0 0 0 0 0 0 0 0 0 0 0 0 0 0 0 0 0 0
0 0 0 0 0 0 0 0 0 0 0 0 0 0 0 0 0 0 0 0 0 0 0 0 0 0 0 0 0 0 0 0 0 0 0 0 0 0 0 0 0 0 0